[{"header": {"dx": 0.06612293990616946, "dy": 0.0552356325346848, "nx": 98, "ny": 59, "la1": 35.046912555036876, "la2": 31.78801023549047, "lo1": -121.43107172385933, "lo2": -114.95102361305473, "refTime": "2026041221", "parameterCategory": 1, "parameterNumber": 2}, "data": [8.64, 8.64, 8.64, 8.64, 8.21, 8.17, 8.17, 7.74, 7.84, 7.4, 7.4, 6.97, 8.77, 9.24, 9.24, 9.24, 9.64, 9.42, 9.97, 9.04, 9.04, 9.04, 8.72, 8.82, 8.82, 8.72, 8.4, 8.43, 9.42, 10.04, 10.04, 9.42, 9.42, 9.42, 10.32, 10.89, 11.15, 9.35, 5.75, 3.48, 3.84, 6.16, 7.5, 7.15, 7.6, 8.03, 9.17, 9.24, 9.11, 9.11, 9.11, 8.99, 8.99, 9.77, 10.65, 11.47, 12.22, 12.26, 12.65, 12.27, 12.27, 12.65, 12.86, 13.19, 12.27, 10.63, 9.89, 10.24, 10.9, 11.64, 11.64, 11.28, 10.63, 11.66, 11.66, 12.23, 12.15, 11.72, 12.53, 10.41, 6.94, 3.72, 4.34, 6.26, 8.29, 8.19, 8.49, 8.06, 7.06, 5.9, 6.0, 5.86, 5.2, 5.14, 4.92, 5.9, 6.83, 7.68, 8.77, 8.77, 8.77, 8.33, 8.33, 8.3, 7.87, 7.87, 7.4, 7.4, 6.94, 8.77, 8.77, 8.8, 9.76, 9.76, 8.77, 9.97, 9.46, 7.76, 9.04, 9.04, 9.04, 9.04, 8.06, 7.76, 7.76, 8.43, 9.43, 9.4, 9.0, 8.31, 9.0, 9.4, 10.0, 9.66, 7.85, 4.47, 0.0, 0.0, 2.95, 6.14, 7.15, 7.03, 8.31, 9.06, 9.24, 9.24, 8.84, 8.84, 9.11, 9.39, 9.89, 10.07, 11.11, 12.22, 12.26, 12.65, 12.65, 12.27, 12.27, 12.86, 12.86, 11.88, 9.96, 9.17, 9.48, 10.51, 11.54, 12.22, 12.26, 11.6, 11.28, 11.66, 12.23, 12.56, 12.87, 11.72, 12.53, 10.41, 6.94, 3.72, 4.34, 6.26, 8.29, 8.19, 8.49, 8.06, 7.06, 5.9, 6.0, 5.86, 5.2, 5.14, 4.92, 5.9, 6.83, 7.68, 8.77, 8.77, 8.77, 8.33, 8.33, 8.3, 7.87, 7.97, 7.51, 7.51, 7.06, 7.06, 9.24, 9.24, 8.8, 8.8, 8.77, 8.77, 8.56, 9.46, 8.06, 9.03, 8.22, 8.22, 8.63, 7.2, 7.82, 8.43, 8.06, 7.68, 7.59, 7.36, 7.78, 9.8, 8.38, 8.18, 4.89, 3.39, 2.24, 2.4, 4.47, 6.0, 7.02, 7.36, 8.3, 9.06, 9.06, 8.66, 8.95, 9.24, 9.11, 9.6, 10.01, 10.84, 10.81, 12.26, 12.26, 12.26, 12.26, 12.27, 12.27, 12.86, 11.88, 9.62, 8.42, 8.66, 10.43, 11.47, 12.5, 12.84, 12.87, 12.27, 11.88, 11.64, 12.56, 12.98, 13.23, 12.72, 11.71, 9.68, 5.73, 3.82, 5.36, 7.37, 7.71, 7.11, 6.79, 6.45, 6.04, 6.0, 5.86, 5.86, 5.35, 4.25, 5.06, 6.04, 7.35, 7.76, 8.77, 8.77, 8.33, 8.33, 8.42, 8.41, 7.97, 7.97, 7.51, 7.07, 7.06, 7.13, 8.9, 8.8, 9.24, 8.8, 8.9, 8.9, 8.77, 8.77, 8.33, 8.41, 7.94, 7.21, 7.42, 8.54, 8.18, 7.81, 6.11, 5.06, 4.71, 4.8, 6.56, 8.78, 8.85, 6.95, 5.59, 6.79, 5.58, 5.84, 5.89, 6.7, 7.36, 8.42, 8.42, 9.17, 8.76, 9.06, 8.95, 9.24, 9.43, 10.12, 10.12, 10.51, 11.2, 11.6, 12.26, 12.26, 12.26, 12.27, 12.27, 12.27, 9.96, 8.42, 8.18, 9.11, 10.54, 11.31, 12.37, 13.05, 13.88, 12.89, 12.23, 11.2, 12.14, 12.8, 13.01, 13.18, 11.36, 8.0, 4.02, 4.02, 5.94, 7.37, 6.71, 6.16, 5.53, 5.21, 5.29, 6.0, 6.45, 6.0, 4.92, 4.4, 5.21, 6.95, 7.76, 7.06, 8.77, 8.77, 8.42, 8.42, 8.42, 7.97, 7.97, 7.97, 7.58, 7.13, 7.13, 6.68, 8.9, 8.9, 8.9, 8.9, 8.46, 8.45, 8.05, 8.01, 8.85, 7.97, 7.06, 6.58, 5.82, 7.44, 7.9, 7.21, 5.37, 2.99, 2.51, 3.32, 5.06, 7.27, 8.22, 7.27, 6.5, 8.82, 7.76, 6.04, 6.0, 6.0, 7.36, 8.53, 8.53, 8.42, 8.72, 9.06, 9.36, 9.8, 9.8, 9.89, 10.22, 10.18, 11.2, 11.54, 11.95, 12.26, 12.26, 12.27, 12.03, 10.28, 8.42, 7.63, 8.43, 9.92, 10.71, 11.48, 13.04, 14.15, 13.85, 13.89, 12.33, 12.15, 12.21, 11.71, 12.85, 12.41, 9.35, 6.26, 2.98, 3.48, 6.0, 6.17, 4.98, 4.26, 4.4, 5.29, 5.14, 6.84, 7.1, 6.0, 4.4, 4.34, 5.89, 7.41, 7.81, 6.64, 8.86, 8.86, 8.42, 8.42, 8.42, 8.03, 8.03, 8.03, 7.58, 7.13, 7.13, 6.71, 8.49, 8.94, 8.94, 8.94, 8.94, 8.49, 7.6, 7.6, 7.6, 7.42, 7.63, 6.52, 5.93, 6.28, 7.21, 6.01, 4.46, 3.4, 2.64, 3.72, 5.15, 6.44, 6.68, 7.18, 8.22, 9.34, 8.12, 4.5, 3.32, 5.0, 7.48, 8.53, 8.12, 8.01, 8.3, 8.42, 9.17, 9.17, 9.96, 9.89, 9.89, 9.8, 10.84, 11.54, 11.54, 11.6, 12.27, 11.64, 10.28, 8.12, 6.43, 7.45, 8.03, 9.92, 11.08, 11.59, 12.33, 14.15, 14.86, 14.51, 13.51, 12.79, 12.04, 11.8, 11.51, 10.25, 7.6, 5.26, 2.2, 3.22, 4.98, 4.4, 2.82, 3.32, 4.4, 5.14, 6.0, 7.36, 7.64, 6.0, 4.56, 5.53, 7.15, 7.81, 7.06, 6.18, 8.42, 8.42, 8.42, 8.42, 8.47, 8.03, 8.03, 8.03, 7.58, 7.15, 7.15, 6.71, 8.94, 8.49, 9.83, 8.49, 8.94, 8.49, 8.05, 7.15, 6.71, 6.65, 6.51, 6.18, 6.01, 5.69, 6.01, 5.72, 5.46, 5.36, 5.03, 3.63, 4.19, 4.89, 5.3, 6.42, 8.22, 10.94, 8.82, 3.55, 1.58, 3.6, 5.72, 5.92, 7.24, 8.01, 8.76, 8.42, 8.22, 9.42, 9.17, 9.17, 9.8, 9.8, 10.51, 11.6, 11.25, 11.28, 11.66, 10.28, 7.36, 5.72, 5.73, 6.54, 8.25, 10.47, 12.23, 12.01, 12.42, 13.85, 14.88, 15.24, 14.24, 14.05, 12.8, 11.61, 10.58, 8.49, 6.26, 4.29, 2.16, 2.99, 4.02, 1.96, 2.57, 3.06, 4.4, 6.15, 7.36, 8.12, 7.52, 6.14, 5.1, 5.69, 7.2, 7.15, 6.18, 5.9, 8.42, 8.47, 8.47, 8.47, 8.47, 8.47, 8.05, 8.05, 7.6, 7.15, 7.15, 6.71, 8.94, 8.94, 9.39, 8.05, 8.49, 8.49, 7.6, 7.15, 6.71, 5.81, 5.81, 5.51, 5.21, 5.93, 5.06, 4.75, 4.96, 5.72, 5.03, 3.45, 2.49, 3.6, 5.49, 6.24, 7.69, 8.67, 8.73, 4.14, 1.32, 2.4, 4.96, 5.98, 6.71, 8.24, 7.82, 8.22, 7.36, 8.54, 8.22, 9.17, 9.8, 9.8, 10.92, 10.58, 10.63, 10.66, 10.01, 7.48, 5.0, 4.24, 5.06, 6.54, 8.39, 10.59, 13.04, 13.18, 13.26, 14.46, 15.66, 15.52, 15.08, 14.36, 13.18, 11.53, 10.25, 7.15, 4.98, 3.22, 1.98, 2.4, 0.88, 1.67, 3.06, 4.5, 5.28, 6.98, 8.53, 9.26, 8.3, 6.01, 5.69, 6.55, 7.15, 7.06, 6.31, 6.0, 8.47, 8.47, 8.47, 8.47, 8.47, 8.49, 8.05, 8.05, 7.6, 7.6, 7.15, 6.23, 9.39, 8.49, 8.94, 8.49, 8.49, 8.05, 7.6, 6.64, 7.01, 6.26, 4.92, 4.92, 4.57, 5.6, 4.11, 3.49, 5.93, 6.01, 4.75, 2.26, 2.54, 4.96, 6.32, 7.07, 7.63, 6.64, 6.52, 5.06, 3.6, 4.71, 6.01, 6.69, 6.98, 7.27, 7.65, 7.95, 7.9, 8.45, 8.94, 8.3, 9.06, 9.8, 9.89, 9.89, 9.62, 9.0, 8.02, 5.29, 3.32, 4.13, 5.73, 7.32, 9.12, 11.59, 13.8, 14.51, 14.79, 15.35, 15.78, 15.05, 15.18, 13.41, 12.52, 11.18, 8.49, 5.73, 4.09, 3.39, 2.84, 0.98, 1.58, 3.06, 4.5, 5.78, 6.79, 8.22, 8.93, 9.56, 8.3, 6.44, 5.46, 6.45, 7.35, 7.13, 6.41, 6.24, 8.47, 8.47, 8.47, 8.49, 8.49, 8.49, 8.05, 8.05, 7.6, 7.58, 7.13, 6.68, 7.13, 7.13, 9.39, 8.94, 8.94, 8.0, 8.82, 7.63, 7.45, 7.01, 6.58, 6.07, 5.2, 5.01, 4.43, 4.11, 5.06, 5.69, 4.75, 2.49, 3.68, 4.75, 7.44, 7.76, 6.23, 4.22, 5.06, 5.31, 5.89, 6.64, 7.35, 7.02, 7.02, 6.53, 7.27, 7.08, 8.18, 8.72, 9.11, 9.11, 8.95, 9.06, 8.76, 9.06, 9.17, 7.9, 5.21, 2.6, 3.25, 4.07, 5.78, 7.11, 9.12, 11.29, 14.2, 14.95, 14.68, 15.08, 14.66, 13.39, 12.52, 11.62, 10.26, 7.55, 4.77, 3.58, 2.68, 2.0, 3.09, 3.78, 2.97, 4.6, 6.05, 7.52, 8.22, 9.57, 10.15, 9.84, 8.0, 5.82, 5.84, 6.64, 7.9, 7.36, 6.84, 6.84, 8.49, 8.49, 8.49, 8.49, 8.49, 8.49, 8.05, 8.05, 8.03, 7.58, 7.13, 7.06, 7.07, 7.07, 9.34, 9.39, 9.39, 7.58, 7.87, 7.87, 9.24, 8.73, 8.06, 6.99, 6.64, 6.0, 5.72, 5.06, 4.75, 5.69, 6.28, 4.74, 4.74, 6.16, 7.21, 8.22, 6.7, 5.37, 5.69, 7.02, 8.12, 7.76, 7.41, 7.21, 6.32, 5.89, 6.24, 6.42, 7.24, 8.18, 8.99, 9.12, 8.86, 8.18, 6.73, 7.32, 8.16, 6.56, 3.49, 1.64, 2.44, 4.88, 6.54, 7.53, 8.99, 11.37, 13.67, 14.42, 13.88, 12.62, 11.5, 10.32, 9.72, 8.49, 6.02, 1.4, 1.79, -0.0, 1.98, 2.83, 4.4, 5.95, 6.62, 6.71, 7.44, 8.53, 9.56, 10.53, 10.4, 9.08, 7.35, 5.84, 5.53, 6.83, 7.78, 7.64, 6.7, 7.36, 8.49, 8.49, 8.49, 8.49, 8.49, 8.49, 8.49, 8.03, 8.03, 7.58, 7.13, 7.07, 7.4, 7.4, 7.4, 8.41, 8.49, 8.94, 9.37, 9.32, 9.32, 9.32, 7.97, 9.32, 7.21, 7.06, 6.9, 5.21, 6.6, 7.2, 7.6, 7.2, 6.99, 6.51, 7.11, 7.42, 7.6, 7.44, 7.44, 8.43, 8.42, 8.06, 6.73, 6.01, 5.69, 4.83, 4.88, 4.8, 6.16, 5.86, 6.31, 7.71, 7.0, 5.56, 4.71, 5.01, 7.95, 8.86, 4.17, -0.0, 1.65, 4.91, 6.59, 6.54, 8.25, 9.89, 12.59, 13.41, 12.21, 11.14, 10.23, 9.53, 8.05, 5.36, 0.0, -3.82, -1.27, 1.96, 4.5, 5.95, 6.84, 7.64, 8.3, 8.01, 8.79, 10.18, 10.55, 10.48, 9.74, 8.14, 6.07, 5.37, 5.49, 6.7, 7.36, 7.64, 7.36, 7.78, 8.49, 8.49, 8.49, 8.49, 8.49, 8.49, 8.47, 8.03, 8.03, 7.58, 7.51, 7.51, 7.4, 7.4, 7.4, 7.87, 8.86, 9.37, 9.37, 9.39, 9.39, 9.39, 8.94, 8.05, 7.13, 6.51, 7.01, 7.09, 6.79, 6.61, 8.33, 8.14, 7.85, 7.11, 7.11, 6.98, 7.71, 7.6, 8.0, 8.05, 8.06, 7.35, 6.39, 4.95, 3.91, 3.35, 3.61, 4.8, 4.8, 4.8, 5.3, 5.99, 4.39, 2.91, 2.31, 3.37, 6.64, 11.17, 6.52, -0.0, -0.0, 4.98, 6.54, 5.62, 5.83, 7.22, 9.29, 10.12, 10.8, 12.51, 14.35, 13.36, 9.34, 3.58, -3.16, -2.48, 1.75, 5.72, 8.01, 8.73, 8.79, 9.89, 9.48, 11.25, 10.84, 11.6, 11.64, 10.15, 8.67, 7.03, 6.06, 5.94, 6.14, 6.98, 7.78, 7.78, 7.48, 7.48, 8.49, 8.49, 8.49, 8.49, 8.47, 8.47, 8.47, 8.03, 7.97, 7.52, 7.51, 7.4, 6.97, 6.97, 7.4, 7.87, 8.33, 8.77, 9.23, 9.32, 9.32, 9.37, 8.92, 8.47, 8.05, 7.97, 8.21, 8.0, 7.69, 7.07, 7.06, 8.33, 8.85, 6.98, 7.21, 7.21, 7.47, 7.44, 7.41, 8.06, 7.68, 7.41, 6.32, 5.44, 4.46, 3.52, 3.15, 4.4, 4.88, 4.6, 5.45, 4.4, 2.28, 1.09, 2.23, 3.02, 5.6, 10.47, 8.11, 0.81, -0.0, 3.58, 5.5, 4.58, 3.14, 4.04, 5.17, 6.69, 8.8, 12.34, 15.6, 17.31, 13.25, 5.36, -0.0, 1.69, 6.6, 9.92, 11.59, 12.09, 11.54, 11.6, 11.79, 11.75, 11.79, 12.65, 11.5, 9.66, 7.6, 6.7, 6.32, 6.95, 6.88, 7.48, 7.59, 8.31, 7.9, 7.48, 8.49, 8.49, 8.49, 8.47, 8.47, 8.47, 8.47, 7.97, 7.97, 7.97, 7.51, 7.07, 7.06, 7.07, 7.4, 7.87, 8.3, 8.21, 8.64, 8.64, 8.79, 9.23, 8.79, 8.33, 8.47, 8.92, 9.11, 8.48, 7.74, 6.97, 7.06, 6.61, 8.6, 8.22, 8.22, 8.15, 7.81, 7.35, 8.94, 7.76, 7.41, 7.21, 6.01, 6.01, 4.71, 3.8, 3.52, 4.44, 5.46, 5.46, 5.72, 4.66, 2.54, 1.32, 2.49, 3.4, 6.01, 8.09, 8.26, 4.52, 2.45, 3.68, 3.53, 3.39, 2.42, 3.34, 4.65, 5.6, 8.23, 11.7, 14.82, 19.42, 16.76, 8.33, 2.57, 4.95, 9.79, 12.02, 13.67, 14.47, 13.85, 12.89, 12.33, 11.6, 11.03, 12.45, 10.85, 8.4, 6.7, 7.27, 7.59, 6.88, 7.22, 7.9, 8.64, 7.9, 6.84, 6.84, 8.49, 8.47, 8.47, 8.47, 8.47, 8.47, 8.42, 7.97, 7.97, 7.97, 7.51, 7.07, 7.06, 7.07, 7.4, 7.87, 8.3, 8.21, 8.21, 8.21, 8.64, 8.64, 8.64, 8.21, 8.92, 9.32, 9.57, 8.91, 7.74, 7.26, 6.94, 6.6, 6.8, 9.2, 8.37, 7.68, 7.97, 8.03, 8.37, 8.15, 6.44, 6.44, 6.32, 5.72, 4.96, 4.96, 4.96, 4.96, 6.01, 6.64, 6.95, 6.3, 5.72, 3.68, 3.76, 4.02, 4.22, 4.6, 5.8, 6.67, 5.63, 4.4, 4.44, 3.35, 2.54, 2.33, 4.0, 5.45, 7.95, 11.52, 14.85, 20.08, 18.5, 10.04, 5.73, 8.33, 12.59, 14.7, 15.44, 15.47, 15.13, 13.89, 12.23, 10.55, 9.49, 7.76, 8.8, 7.76, 7.59, 8.22, 8.53, 7.9, 8.93, 8.93, 7.94, 6.79, 6.62, 6.62, 8.47, 8.47, 8.47, 8.47, 8.42, 8.42, 8.42, 7.97, 7.97, 7.51, 7.07, 7.06, 7.06, 7.07, 7.4, 7.87, 8.17, 8.17, 8.21, 8.21, 8.21, 8.48, 8.48, 8.64, 9.37, 9.77, 9.39, 8.3, 7.51, 7.01, 6.56, 7.07, 6.87, 9.66, 8.32, 8.3, 8.38, 8.37, 7.44, 6.7, 6.63, 5.69, 6.01, 5.24, 4.96, 4.96, 5.21, 6.01, 7.56, 7.56, 7.21, 6.87, 6.52, 6.01, 6.01, 5.44, 4.71, 5.72, 6.4, 7.9, 7.9, 5.72, 4.75, 3.45, 2.32, 2.47, 3.4, 5.72, 8.53, 11.17, 17.02, 19.6, 17.89, 11.54, 8.99, 11.37, 14.37, 16.11, 16.48, 15.5, 15.47, 14.26, 11.64, 8.8, 7.2, 6.45, 7.15, 8.53, 8.85, 9.56, 8.9, 8.27, 8.27, 8.57, 8.53, 7.44, 7.36, 7.36, 8.47, 8.47, 8.42, 8.42, 8.42, 8.42, 8.42, 7.87, 7.87, 7.51, 7.06, 7.06, 7.06, 6.97, 7.4, 7.87, 8.17, 8.0, 8.0, 8.0, 8.42, 8.22, 8.22, 8.79, 9.39, 8.67, 7.6, 7.48, 7.48, 7.61, 7.44, 7.73, 8.37, 8.43, 8.27, 9.05, 8.05, 8.54, 7.44, 6.63, 6.01, 6.32, 6.32, 6.32, 5.72, 5.72, 6.64, 7.21, 8.0, 8.93, 8.15, 7.07, 6.7, 7.07, 6.32, 5.72, 4.96, 5.72, 6.64, 7.81, 7.81, 6.01, 4.46, 3.68, 3.45, 3.22, 3.11, 4.71, 8.15, 11.5, 16.96, 20.44, 18.95, 13.85, 11.79, 13.23, 16.06, 17.35, 16.31, 14.79, 14.16, 13.19, 10.63, 7.02, 7.13, 8.12, 9.17, 8.85, 9.17, 9.8, 9.89, 9.26, 8.27, 8.16, 8.3, 8.3, 7.8, 7.8, 8.47, 8.42, 8.42, 8.42, 8.42, 8.42, 8.33, 7.87, 7.51, 7.07, 7.06, 7.06, 6.94, 7.4, 7.4, 9.49, 7.69, 7.74, 8.17, 8.0, 8.22, 7.76, 8.0, 9.8, 9.54, 9.86, 6.79, 9.4, 10.04, 8.08, 8.65, 8.93, 9.35, 9.2, 8.91, 8.0, 7.71, 7.71, 8.4, 8.93, 7.44, 7.51, 8.18, 7.21, 7.21, 6.32, 7.21, 7.81, 8.54, 8.93, 8.54, 7.44, 6.87, 6.87, 6.3, 6.3, 5.21, 5.72, 6.98, 8.15, 7.27, 5.72, 4.66, 4.03, 4.03, 4.03, 4.83, 5.59, 8.06, 11.2, 15.58, 20.34, 21.41, 17.35, 14.58, 15.31, 16.46, 16.82, 16.22, 14.15, 11.37, 9.42, 8.12, 7.59, 8.42, 9.48, 9.89, 9.53, 9.48, 9.48, 10.12, 9.89, 8.42, 7.36, 8.95, 8.95, 9.06, 9.06, 8.42, 8.42, 8.42, 8.42, 8.33, 8.33, 8.3, 7.97, 7.51, 7.06, 7.06, 6.94, 6.94, 7.4, 7.69, 7.74, 7.74, 7.74, 9.49, 8.82, 8.8, 7.07, 7.51, 9.35, 9.27, 9.66, 10.01, 8.93, 9.21, 9.38, 9.63, 9.48, 9.71, 9.42, 9.01, 8.3, 7.81, 7.81, 7.81, 8.22, 8.22, 7.48, 7.31, 6.8, 5.86, 7.81, 7.44, 8.18, 8.93, 8.54, 8.15, 7.21, 6.64, 6.3, 5.89, 5.21, 6.24, 5.64, 6.83, 7.9, 6.3, 4.66, 4.44, 4.44, 4.12, 4.96, 5.21, 6.95, 8.67, 11.09, 15.35, 20.66, 22.07, 18.94, 16.09, 15.45, 15.13, 14.99, 12.94, 11.33, 9.66, 8.8, 8.42, 8.64, 9.96, 10.19, 10.19, 9.9, 9.53, 8.85, 9.48, 10.12, 9.06, 8.18, 9.02, 10.75, 10.84, 10.84, 8.42, 8.42, 8.42, 8.3, 8.3, 8.3, 7.87, 7.51, 7.07, 7.06, 6.94, 6.94, 7.4, 7.26, 7.69, 8.17, 8.17, 8.17, 8.17, 9.24, 8.72, 6.6, 7.13, 8.0, 9.1, 9.58, 9.63, 9.63, 9.63, 9.88, 9.71, 9.71, 9.71, 9.51, 9.42, 9.01, 8.72, 8.3, 8.22, 8.22, 8.22, 7.71, 7.31, 6.8, 5.86, 7.21, 7.21, 8.54, 8.93, 8.93, 7.56, 6.95, 7.27, 6.3, 6.3, 4.96, 5.06, 6.14, 7.27, 6.64, 5.21, 4.66, 4.66, 5.72, 4.83, 5.06, 5.64, 7.59, 9.0, 11.26, 14.3, 18.73, 20.44, 16.01, 12.04, 10.04, 8.88, 9.66, 9.39, 9.49, 9.03, 9.04, 10.04, 9.92, 10.66, 10.01, 9.62, 9.2, 9.53, 8.53, 9.17, 9.7, 10.01, 9.43, 10.12, 10.78, 11.15, 11.15, 8.42, 8.42, 8.3, 8.3, 7.87, 7.87, 7.51, 7.51, 7.07, 6.97, 7.4, 7.4, 7.26, 7.26, 7.74, 8.0, 8.0, 8.42, 8.48, 8.72, 8.0, 7.87, 8.03, 9.01, 9.63, 9.76, 9.63, 9.88, 9.88, 10.11, 9.71, 9.71, 9.71, 9.71, 9.71, 9.51, 9.42, 9.21, 8.72, 8.51, 8.0, 7.48, 7.08, 6.41, 5.59, 5.65, 8.37, 8.93, 8.37, 7.9, 7.27, 7.27, 7.27, 6.3, 4.96, 4.66, 5.06, 6.32, 6.63, 5.03, 3.4, 4.34, 4.83, 5.06, 5.76, 5.76, 5.9, 7.18, 8.22, 9.48, 10.43, 16.52, 18.72, 12.04, 0.0, 1.98, 4.0, 5.29, 6.21, 7.07, 9.4, 10.55, 11.28, 11.66, 10.66, 10.01, 8.42, 9.06, 9.48, 8.85, 8.85, 9.48, 10.43, 10.78, 10.81, 11.8, 11.9, 11.9, 8.42, 8.42, 8.41, 7.87, 7.97, 7.51, 7.51, 7.51, 7.4, 7.4, 7.4, 7.26, 7.26, 7.69, 7.58, 8.0, 8.0, 8.22, 8.3, 8.51, 8.72, 8.77, 8.92, 9.51, 10.02, 9.76, 9.63, 9.63, 10.0, 10.0, 10.21, 9.71, 9.71, 9.71, 9.71, 9.71, 9.92, 9.42, 9.01, 8.91, 8.51, 8.0, 7.48, 6.7, 6.51, 5.98, 8.37, 7.56, 7.9, 7.27, 7.27, 7.59, 7.27, 6.64, 4.71, 4.0, 5.59, 6.73, 5.93, 2.8, 1.84, 3.32, 4.92, 5.14, 5.35, 6.0, 6.57, 6.83, 6.7, 6.57, 8.24, 11.06, 17.79, 7.45, -0.0, 1.98, 4.6, 5.34, 6.4, 7.67, 9.52, 11.66, 12.27, 12.27, 10.98, 9.06, 8.45, 8.95, 10.01, 10.84, 9.17, 9.85, 10.81, 11.8, 11.8, 11.79, 11.79, 11.79, 8.42, 8.42, 7.97, 7.97, 7.51, 7.51, 7.51, 7.4, 7.4, 7.4, 7.26, 7.26, 7.69, 7.69, 8.0, 8.0, 8.22, 8.22, 8.3, 8.51, 8.51, 8.79, 9.32, 9.88, 9.76, 9.76, 10.02, 10.16, 10.4, 10.4, 10.4, 10.11, 9.71, 9.71, 10.21, 10.21, 10.21, 9.71, 9.42, 9.01, 8.68, 8.15, 7.61, 7.07, 6.79, 6.23, 8.73, 8.73, 8.15, 8.15, 7.59, 7.27, 7.56, 6.64, 5.03, 5.03, 5.69, 6.53, 5.72, 2.54, 1.75, 2.57, 4.25, 5.14, 5.76, 5.76, 6.98, 8.53, 6.83, 6.53, 7.41, 19.3, 24.76, 16.96, 11.45, 9.63, 10.05, 10.05, 10.41, 9.11, 10.32, 11.52, 12.14, 10.79, 8.95, 8.84, 8.84, 9.7, 10.75, 11.38, 10.51, 10.55, 11.42, 11.79, 11.79, 12.33, 11.42, 11.42, 7.97, 7.97, 7.97, 7.52, 7.51, 7.51, 7.4, 7.4, 7.4, 7.26, 7.26, 7.69, 7.69, 7.51, 8.0, 8.0, 8.22, 8.22, 8.0, 8.15, 8.51, 9.32, 9.86, 10.02, 9.86, 9.76, 10.02, 10.16, 10.8, 10.91, 10.4, 10.21, 10.11, 10.11, 10.21, 10.21, 10.21, 10.21, 9.71, 9.2, 8.68, 8.15, 7.9, 7.35, 7.15, 7.35, 7.23, 7.61, 7.76, 7.61, 6.7, 7.56, 6.64, 6.32, 5.31, 6.32, 6.95, 6.42, 5.64, 4.8, 3.45, 3.63, 4.34, 4.83, 5.64, 6.42, 7.48, 7.48, 7.48, 8.55, 10.93, 15.01, 23.21, 21.51, 16.88, 12.58, 11.08, 11.14, 11.62, 9.83, 10.28, 10.7, 10.27, 8.16, 8.31, 9.11, 9.11, 9.7, 10.75, 11.74, 13.85, 12.05, 11.75, 11.88, 11.37, 11.75, 11.53, 11.53, 7.97, 7.97, 7.97, 7.51, 7.51, 7.51, 7.4, 7.4, 7.26, 7.26, 7.69, 7.69, 7.51, 7.51, 8.0, 8.0, 8.42, 8.22, 8.51, 8.28, 8.72, 9.39, 10.11, 10.13, 10.13, 9.76, 10.16, 10.55, 10.91, 10.91, 10.4, 10.0, 10.11, 10.21, 10.21, 10.62, 10.62, 10.42, 9.92, 9.2, 8.68, 8.43, 8.0, 7.44, 7.44, 7.9, 8.15, 8.15, 8.4, 8.0, 7.08, 5.86, 7.21, 6.01, 6.3, 7.27, 7.59, 6.71, 5.4, 5.86, 6.71, 5.72, 4.42, 3.91, 4.83, 6.42, 7.48, 7.48, 9.04, 9.6, 10.68, 13.44, 17.13, 22.56, 21.02, 15.66, 10.96, 9.39, 8.94, 8.49, 8.94, 8.19, 6.88, 6.67, 7.48, 9.77, 9.89, 10.43, 11.17, 11.8, 13.85, 13.65, 12.9, 11.3, 10.79, 11.66, 11.16, 11.16, 7.97, 7.97, 7.97, 7.51, 7.51, 7.4, 7.4, 7.4, 7.26, 7.69, 7.51, 7.51, 7.51, 7.51, 8.0, 8.0, 8.42, 8.3, 8.51, 8.51, 8.79, 9.57, 10.02, 10.13, 9.76, 10.16, 10.55, 10.91, 10.91, 10.91, 10.4, 10.4, 10.0, 10.0, 10.62, 10.62, 10.42, 9.71, 9.6, 9.35, 9.1, 8.93, 8.55, 8.0, 8.27, 8.68, 8.28, 8.51, 8.51, 8.72, 7.48, 6.7, 6.23, 6.01, 7.59, 8.31, 7.95, 6.71, 4.92, 6.2, 7.95, 7.27, 4.96, 3.15, 5.69, 6.42, 7.48, 7.97, 9.04, 10.23, 11.37, 12.8, 15.84, 18.86, 21.42, 19.02, 13.64, 8.36, 7.08, 7.12, 7.6, 6.24, 5.1, 5.71, 8.1, 9.58, 11.38, 11.47, 11.54, 12.26, 12.78, 14.62, 13.89, 12.03, 10.55, 11.16, 11.16, 11.16, 7.97, 7.97, 7.52, 7.4, 7.4, 7.4, 7.4, 7.26, 7.26, 7.51, 7.51, 7.51, 7.51, 7.51, 8.0, 8.0, 8.48, 8.3, 8.51, 8.72, 9.39, 9.92, 10.16, 9.76, 10.02, 10.16, 10.8, 10.91, 10.91, 10.91, 10.4, 10.4, 10.4, 10.21, 10.62, 10.21, 10.21, 9.48, 9.35, 9.1, 9.1, 8.93, 8.55, 8.0, 8.27, 8.43, 8.68, 8.91, 8.91, 8.51, 7.9, 7.44, 7.51, 7.23, 7.55, 8.12, 7.95, 6.97, 5.76, 6.45, 8.12, 7.9, 5.64, 4.6, 5.76, 7.95, 8.31, 8.38, 9.05, 10.63, 12.45, 13.72, 14.4, 15.56, 17.64, 20.22, 17.91, 11.64, 8.4, 7.82, 7.81, 4.46, 4.38, 6.57, 7.93, 9.73, 10.78, 12.57, 12.62, 12.27, 12.27, 13.65, 14.88, 12.39, 11.16, 11.12, 11.12, 11.12, 7.87, 7.87, 7.4, 7.4, 7.4, 7.4, 7.26, 7.26, 7.51, 7.51, 7.51, 7.51, 7.51, 7.51, 8.0, 8.0, 8.48, 8.3, 8.72, 9.32, 10.01, 10.0, 10.02, 10.02, 10.16, 10.4, 10.91, 10.91, 10.91, 10.4, 10.4, 10.4, 10.21, 10.21, 10.21, 10.0, 9.88, 9.63, 9.48, 9.48, 9.48, 9.1, 8.55, 9.4, 9.4, 8.0, 8.68, 8.28, 7.9, 7.9, 7.73, 7.81, 7.81, 7.55, 7.27, 6.97, 7.96, 7.68, 6.45, 7.36, 8.12, 7.82, 5.63, 5.86, 7.36, 8.22, 8.93, 9.04, 9.03, 9.9, 12.04, 13.91, 15.35, 14.99, 15.56, 17.13, 17.38, 15.43, 12.23, 9.77, 7.76, 5.1, 5.45, 6.98, 9.53, 10.19, 11.37, 12.65, 12.86, 12.27, 11.88, 12.65, 13.29, 13.35, 11.75, 11.04, 11.04, 11.04, 7.87, 7.87, 7.4, 7.4, 7.4, 7.26, 7.26, 7.51, 7.51, 7.51, 7.51, 7.51, 7.51, 7.51, 8.0, 8.17, 8.64, 8.48, 9.23, 9.82, 10.0, 10.4, 9.88, 10.0, 10.4, 10.62, 10.62, 10.4, 10.4, 10.4, 10.4, 10.21, 10.11, 9.88, 9.88, 9.63, 10.02, 9.63, 9.63, 9.48, 9.48, 9.1, 8.55, 8.0, 8.0, 9.67, 10.04, 8.27, 8.08, 8.29, 8.29, 8.37, 8.08, 7.85, 7.55, 7.59, 7.3, 6.98, 7.51, 7.64, 7.82, 7.73, 6.97, 6.97, 7.82, 7.36, 8.01, 9.48, 8.42, 8.0, 9.03, 11.88, 16.39, 17.89, 15.62, 13.86, 13.92, 14.16, 13.83, 11.04, 8.38, 5.71, 6.67, 8.15, 8.72, 11.47, 11.95, 11.95, 11.72, 11.47, 11.34, 12.15, 12.54, 13.83, 12.25, 11.6, 11.34, 11.34, 7.84, 7.84, 7.4, 7.4, 7.26, 7.26, 7.51, 7.51, 7.51, 7.51, 7.09, 7.09, 7.51, 7.69, 7.74, 8.3, 8.77, 9.32, 9.83, 10.34, 10.21, 10.11, 10.11, 10.21, 10.21, 10.62, 10.62, 10.4, 10.21, 10.21, 10.11, 9.48, 9.88, 9.88, 9.63, 10.02, 10.02, 10.02, 9.63, 9.63, 9.48, 9.1, 8.55, 8.0, 8.27, 9.65, 10.04, 8.55, 9.1, 9.1, 8.82, 8.27, 7.72, 7.17, 7.23, 7.59, 7.6, 7.61, 6.98, 7.51, 7.36, 7.73, 7.73, 7.82, 7.36, 6.7, 7.08, 8.85, 8.22, 7.56, 6.39, 8.65, 14.49, 20.87, 18.78, 12.52, 10.25, 11.09, 12.79, 12.65, 10.19, 9.21, 7.9, 8.8, 9.86, 9.68, 8.92, 11.15, 10.49, 10.32, 10.52, 11.52, 12.65, 12.92, 13.07, 12.13, 11.6, 11.6, 7.4, 7.4, 7.26, 7.26, 7.26, 7.51, 7.51, 7.51, 7.51, 7.09, 7.09, 7.51, 7.51, 7.26, 7.87, 8.3, 8.87, 9.83, 10.14, 10.42, 10.11, 10.11, 10.11, 10.21, 10.21, 10.21, 10.62, 10.0, 11.6, 9.2, 9.35, 9.35, 9.63, 9.63, 9.63, 9.63, 9.63, 9.63, 9.63, 9.63, 9.48, 9.1, 9.1, 8.55, 8.43, 8.43, 8.96, 9.35, 9.71, 9.2, 8.68, 7.9, 7.72, 7.44, 6.95, 7.28, 6.7, 6.98, 6.98, 6.98, 8.01, 8.12, 7.08, 7.44, 7.36, 6.98, 6.14, 8.22, 9.42, 9.66, 8.03, 8.42, 12.21, 20.41, 22.05, 14.55, 8.99, 10.0, 12.23, 12.64, 12.08, 11.34, 11.21, 9.11, 9.32, 8.49, 6.71, 5.81, 9.21, 9.58, 10.32, 11.03, 12.14, 12.92, 13.07, 12.54, 11.99, 11.99, 7.26, 7.26, 7.26, 7.26, 7.09, 7.51, 7.51, 7.51, 7.09, 7.01, 7.01, 7.09, 7.09, 7.26, 7.97, 8.47, 9.39, 10.01, 10.18, 9.92, 9.71, 10.11, 10.11, 10.21, 10.21, 10.21, 10.21, 10.11, 10.11, 11.6, 9.35, 9.48, 9.88, 9.88, 9.88, 9.88, 9.88, 9.88, 9.88, 9.1, 9.1, 9.1, 9.1, 8.55, 8.82, 8.43, 9.2, 9.42, 9.42, 9.01, 8.68, 7.9, 7.44, 7.51, 6.97, 6.35, 6.34, 6.98, 6.98, 7.61, 7.61, 6.57, 6.94, 6.57, 7.36, 7.48, 6.83, 7.35, 9.3, 10.79, 10.29, 9.65, 11.18, 17.59, 24.99, 18.58, 10.96, 10.4, 12.4, 13.33, 12.65, 11.52, 11.4, 11.08, 7.13, 5.34, 3.87, 3.87, 8.3, 9.9, 10.85, 10.79, 11.88, 12.66, 13.6, 13.52, 12.54, 12.54, 7.26, 7.26, 7.26, 7.09, 7.09, 7.51, 7.51, 7.09, 7.01, 7.01, 7.01, 7.21, 7.26, 7.4, 8.47, 8.94, 9.68, 9.86, 9.7, 9.92, 9.71, 9.71, 10.11, 10.21, 10.21, 10.21, 10.11, 10.11, 10.11, 9.71, 9.88, 9.88, 9.88, 9.88, 9.88, 9.48, 9.48, 9.48, 9.35, 9.35, 9.1, 9.1, 9.1, 8.82, 8.82, 9.2, 9.01, 9.42, 9.01, 8.68, 8.27, 8.0, 7.51, 7.55, 6.97, 6.35, 6.35, 6.63, 6.98, 7.61, 7.96, 6.7, 7.24, 7.24, 6.7, 7.48, 7.18, 7.97, 8.94, 10.41, 10.28, 11.5, 12.51, 15.91, 21.78, 19.81, 14.16, 11.37, 12.14, 12.62, 12.14, 10.8, 10.05, 9.58, 7.89, 3.64, 3.48, 4.65, 9.27, 10.63, 11.2, 11.92, 11.88, 12.92, 13.84, 13.6, 13.07, 13.07, 7.26, 7.26, 7.09, 7.09, 7.09, 7.09, 7.09, 7.01, 7.01, 7.21, 6.79, 7.4, 7.4, 7.97, 8.49, 9.23, 9.43, 9.7, 9.51, 9.51, 9.71, 9.71, 9.71, 10.11, 10.11, 10.11, 10.11, 9.71, 9.71, 9.71, 9.71, 9.71, 9.71, 9.71, 9.71, 9.48, 9.48, 9.35, 9.35, 9.35, 9.35, 8.96, 8.96, 8.96, 9.2, 8.8, 9.01, 8.68, 8.68, 8.43, 8.0, 8.08, 7.55, 7.27, 6.69, 6.35, 6.35, 6.35, 6.98, 7.6, 6.34, 7.19, 7.24, 7.24, 7.24, 7.56, 7.59, 8.31, 8.68, 9.3, 9.84, 11.72, 13.62, 16.48, 19.03, 18.2, 15.76, 12.98, 11.61, 11.33, 9.83, 9.4, 8.82, 7.67, 7.02, 4.74, 5.37, 9.66, 10.29, 11.26, 12.15, 12.56, 13.23, 12.92, 13.83, 13.83, 14.07, 14.07, 7.51, 7.51, 7.09, 7.09, 7.09, 7.01, 7.01, 6.6, 6.79, 6.79, 6.94, 7.4, 7.97, 8.05, 8.47, 8.79, 9.21, 9.01, 9.42, 9.51, 9.71, 9.71, 9.71, 9.71, 10.11, 10.11, 9.71, 9.71, 9.71, 9.71, 9.6, 9.71, 9.71, 9.71, 9.71, 9.71, 9.6, 9.2, 8.96, 8.96, 8.96, 8.82, 8.82, 9.2, 8.68, 8.68, 8.68, 8.28, 7.9, 8.0, 8.08, 7.81, 8.15, 7.59, 6.69, 6.35, 6.35, 6.35, 6.69, 6.98, 6.34, 5.7, 6.94, 6.57, 6.84, 8.22, 7.59, 7.97, 8.31, 8.31, 10.23, 10.28, 15.02, 17.64, 17.89, 16.03, 14.79, 13.83, 12.45, 10.01, 8.55, 8.24, 8.05, 7.68, 7.9, 8.9, 9.56, 10.28, 11.28, 12.29, 13.07, 13.29, 13.49, 13.65, 13.23, 13.23, 13.83, 13.83, 7.09, 7.09, 7.09, 7.01, 7.01, 7.01, 6.79, 6.79, 6.79, 6.94, 7.4, 7.4, 8.05, 8.05, 8.42, 8.67, 9.21, 9.01, 9.42, 9.51, 9.92, 9.71, 9.71, 9.71, 9.71, 9.71, 9.71, 9.71, 9.71, 9.6, 9.2, 9.2, 9.71, 9.71, 9.71, 9.6, 9.2, 9.2, 9.2, 8.96, 8.82, 8.82, 8.43, 10.04, 8.15, 8.68, 8.68, 7.9, 7.9, 7.8, 8.08, 7.81, 7.88, 7.59, 6.69, 6.35, 6.35, 6.08, 6.98, 6.98, 5.95, 4.6, 5.86, 6.57, 7.36, 8.22, 7.27, 7.59, 7.97, 7.97, 9.0, 9.92, 13.51, 18.79, 18.73, 15.1, 13.11, 14.05, 13.11, 9.84, 8.24, 7.69, 7.96, 8.27, 8.53, 9.53, 10.19, 11.28, 12.39, 13.07, 13.96, 14.11, 13.77, 13.31, 12.86, 12.43, 12.5, 13.23, 7.09, 7.09, 7.09, 7.01, 7.01, 6.79, 6.3, 6.36, 6.79, 7.4, 7.4, 7.58, 8.05, 8.47, 8.77, 8.64, 8.72, 9.01, 9.42, 9.51, 9.71, 9.71, 9.71, 9.71, 9.71, 9.71, 9.71, 9.71, 9.6, 9.2, 9.2, 9.2, 9.2, 9.3, 9.3, 9.2, 9.2, 9.2, 9.2, 8.68, 8.43, 8.68, 8.27, 10.04, 8.43, 8.43, 7.9, 7.9, 7.44, 7.8, 7.51, 7.81, 7.55, 6.97, 6.97, 6.35, 6.35, 6.35, 6.69, 6.98, 5.7, 4.63, 5.86, 6.15, 6.7, 7.27, 7.27, 7.18, 7.9, 8.31, 8.31, 9.42, 12.56, 16.55, 20.55, 16.85, 13.01, 12.27, 11.52, 9.84, 8.32, 8.3, 8.93, 8.9, 9.53, 10.55, 11.37, 12.39, 13.49, 13.96, 14.11, 13.77, 13.32, 12.94, 12.49, 11.6, 11.15, 12.5, 7.09, 7.09, 7.09, 7.01, 6.79, 6.3, 6.3, 6.79, 6.94, 7.4, 7.13, 7.6, 8.03, 8.42, 8.77, 8.48, 8.3, 8.72, 9.01, 9.42, 9.3, 9.71, 9.71, 9.71, 9.71, 9.71, 9.71, 9.71, 9.2, 9.2, 9.2, 9.2, 9.2, 9.2, 9.2, 9.2, 9.2, 8.8, 8.68, 8.68, 8.68, 8.68, 8.15, 8.15, 10.04, 8.43, 8.27, 7.72, 7.44, 7.8, 7.51, 7.51, 7.23, 6.95, 6.67, 6.35, 6.35, 6.35, 6.35, 6.35, 5.7, 4.63, 4.45, 6.5, 7.27, 7.27, 6.42, 7.59, 7.48, 8.31, 8.31, 9.04, 11.2, 13.59, 18.57, 19.09, 15.11, 10.89, 9.24, 9.27, 9.56, 9.57, 9.57, 9.92, 10.19, 11.12, 12.13, 13.49, 13.96, 14.11, 13.77, 13.39, 12.94, 12.52, 11.62, 10.73, 9.36, 11.15, 7.09, 7.09, 7.01, 6.79, 6.79, 6.3, 6.3, 6.94, 6.94, 7.13, 7.15, 7.6, 8.03, 8.33, 8.64, 8.48, 8.3, 8.72, 9.01, 9.42, 9.2, 9.3, 9.71, 9.71, 9.71, 9.71, 9.71, 9.2, 9.2, 9.2, 9.2, 9.2, 9.2, 9.42, 9.42, 9.42, 9.01, 9.01, 8.68, 8.68, 8.28, 8.28, 8.15, 7.76, 8.15, 10.04, 8.27, 8.0, 7.64, 7.44, 7.44, 7.17, 7.25, 6.95, 6.95, 6.35, 6.35, 6.35, 6.35, 5.72, 5.7, 4.63, 5.86, 5.69, 5.69, 5.92, 6.83, 7.27, 7.59, 8.31, 9.0, 9.04, 10.16, 11.6, 13.39, 19.52, 20.09, 14.79, 10.0, 9.04, 10.55, 11.16, 10.53, 10.15, 10.65, 11.47, 12.87, 13.96, 14.22, 13.77, 13.39, 12.96, 12.52, 11.18, 9.83, 8.45, 7.37, 7.37, 7.26, 7.26, 7.21, 6.79, 6.3, 6.3, 6.47, 6.51, 6.61, 7.15, 7.15, 7.58, 7.97, 8.33, 8.21, 8.48, 8.3, 8.72, 8.51, 9.01, 9.2, 9.2, 9.3, 9.71, 9.71, 9.71, 9.2, 9.2, 9.2, 9.2, 9.2, 9.42, 9.42, 9.42, 9.42, 9.01, 9.01, 8.91, 8.51, 8.51, 8.51, 8.4, 7.76, 8.0, 8.0, 8.4, 8.68, 8.27, 7.9, 7.72, 7.44, 6.92, 6.92, 6.64, 6.64, 6.34, 6.06, 6.35, 6.35, 6.0, 5.32, 5.06, 4.44, 5.0, 4.8, 6.5, 7.27, 7.59, 7.27, 8.31, 9.04, 8.68, 10.16, 9.67, 11.88, 15.53, 21.09, 21.46, 14.49, 10.66, 11.16, 12.13, 11.69, 11.04, 11.21, 12.53, 12.74, 13.76, 13.84, 13.39, 12.96, 12.07, 10.73, 8.9, 6.88, 6.88, 6.88, 6.88, 7.09, 7.09, 7.21, 6.79, 6.3, 6.3, 6.47, 6.61, 6.68, 7.15, 7.6, 8.03, 7.97, 8.3, 8.17, 8.0, 8.22, 8.72, 8.51, 9.01, 9.42, 9.2, 9.2, 9.2, 9.2, 9.2, 9.2, 9.2, 9.2, 9.42, 9.42, 9.42, 9.42, 9.01, 9.01, 9.01, 9.01, 8.51, 8.51, 8.51, 8.4, 8.0, 8.0, 8.0, 8.0, 8.0, 8.15, 8.15, 7.9, 7.72, 7.44, 7.21, 6.92, 6.92, 6.64, 6.34, 6.01, 6.34, 5.72, 5.72, 5.34, 5.08, 4.66, 5.2, 4.8, 6.24, 7.27, 7.27, 8.02, 8.73, 8.68, 8.42, 9.05, 10.28, 11.83, 13.43, 17.66, 22.08, 19.1, 13.51, 11.64, 11.75, 12.08, 11.6, 11.72, 11.71, 12.86, 12.94, 12.96, 12.52, 11.18, 9.39, 7.55, 6.45, 6.88, 6.88, 6.88, 6.88, 7.09, 7.09, 6.79, 6.79, 6.3, 6.47, 6.47, 6.61, 6.68, 7.15, 7.6, 7.97, 7.87, 8.17, 8.0, 7.81, 8.22, 8.51, 8.51, 9.01, 9.01, 9.42, 9.2, 9.2, 9.2, 9.2, 9.2, 9.2, 9.01, 9.01, 9.01, 9.01, 9.01, 9.01, 9.21, 9.21, 8.72, 8.51, 8.51, 8.51, 8.0, 8.0, 8.0, 8.0, 7.6, 8.0, 8.0, 7.76, 7.35, 7.35, 6.87, 6.87, 7.21, 6.92, 6.64, 5.72, 5.72, 6.01, 6.01, 5.72, 5.09, 5.09, 4.44, 4.0, 6.16, 6.24, 7.9, 7.27, 7.97, 8.38, 8.49, 8.03, 9.04, 10.28, 11.83, 12.86, 15.03, 18.44, 19.1, 16.09, 13.88, 12.33, 11.6, 11.34, 11.3, 11.71, 11.98, 12.49, 12.07, 10.73, 8.94, 5.51, 5.94, 6.45, 7.08, 7.1, 7.1, 7.1, 7.01, 7.01, 6.79, 6.79, 6.3, 6.04, 6.16, 6.61, 6.71, 7.15, 7.58, 7.97, 7.87, 7.74, 8.0, 7.81, 8.22, 8.4, 8.51, 8.51, 9.01, 9.01, 9.01, 9.42, 9.42, 9.42, 9.42, 9.01, 9.01, 9.01, 9.01, 9.01, 9.21, 9.21, 9.21, 8.72, 8.72, 8.72, 8.72, 8.0, 8.22, 8.22, 8.22, 7.81, 7.48, 7.48, 7.48, 7.61, 7.61, 7.35, 6.87, 6.87, 6.87, 6.92, 6.32, 5.72, 5.72, 5.72, 5.72, 5.72, 5.09, 4.69, 4.69, 4.44, 4.69, 6.98, 7.59, 6.95, 7.68, 8.02, 8.03, 8.38, 9.04, 10.28, 11.26, 12.23, 13.83, 16.06, 17.1, 16.45, 16.11, 14.49, 11.99, 10.0, 10.68, 11.23, 10.96, 11.08, 10.25, 8.82, 4.84, 4.98, 6.17, 6.64, 7.15, 7.15, 7.15, 7.15, 7.01, 7.01, 6.79, 6.3, 5.88, 6.04, 6.16, 6.68, 7.15, 7.15, 7.51, 7.87, 7.69, 7.58, 8.0, 7.81, 8.0, 8.0, 8.51, 8.51, 8.91, 9.01, 9.01, 9.01, 9.42, 9.42, 9.01, 9.01, 9.01, 9.01, 9.01, 9.21, 9.21, 9.21, 8.79, 8.72, 8.72, 8.3, 8.3, 8.3, 8.22, 8.22, 7.81, 7.81, 7.48, 7.48, 7.48, 7.23, 7.23, 6.79, 7.15, 7.15, 6.87, 6.59, 6.32, 6.01, 5.72, 5.72, 5.72, 5.72, 5.36, 4.71, 4.45, 4.69, 4.69, 6.24, 6.58, 6.58, 7.59, 7.27, 8.38, 8.73, 9.67, 10.28, 11.26, 11.28, 12.51, 14.49, 15.5, 15.83, 17.11, 16.48, 12.62, 9.2, 9.08, 9.83, 10.05, 9.58, 8.56, 4.4, 4.77, 5.26, 6.26, 6.26, 6.26, 6.71, 6.71, 6.71, 6.6, 6.6, 6.51, 6.3, 5.88, 6.04, 6.6, 6.68, 7.15, 7.58, 7.51, 7.69, 7.69, 7.58, 7.81, 7.81, 8.0, 8.0, 8.51, 8.51, 8.51, 8.91, 9.01, 9.01, 9.01, 9.01, 9.01, 9.01, 8.91, 8.91, 9.21, 9.21, 9.21, 8.79, 8.72, 8.72, 8.3, 8.3, 8.3, 8.48, 8.42, 8.0, 7.81, 7.71, 7.71, 7.48, 7.48, 7.48, 7.07, 7.07, 6.79, 7.15, 6.87, 6.87, 6.32, 6.01, 5.71, 5.44, 5.72, 5.36, 5.1, 4.71, 4.71, 4.03, 4.45, 6.5, 6.24, 6.24, 7.59, 7.68, 8.38, 8.73, 9.4, 10.04, 10.29, 10.28, 11.9, 12.89, 14.5, 15.47, 16.48, 17.48, 14.49, 9.84, 7.89, 8.14, 8.4, 8.4, 5.2, 4.0, 4.92, 5.36, 5.81, 5.73, 6.2, 6.2, 6.2, 6.2, 6.6, 6.6, 6.1, 6.3, 5.88, 6.04, 6.6, 6.71, 7.15, 7.51, 7.4, 7.69, 7.58, 8.0, 7.81, 7.6, 8.0, 8.0, 8.1, 8.51, 8.51, 8.51, 8.91, 9.01, 9.01, 9.01, 8.91, 8.91, 8.72, 8.72, 8.72, 8.79, 8.79, 8.72, 8.72, 8.3, 8.3, 8.48, 8.48, 8.48, 8.0, 7.81, 7.71, 7.71, 7.71, 7.48, 7.48, 7.34, 6.7, 6.7, 6.79, 6.79, 6.52, 6.62, 5.71, 5.71, 5.71, 5.71, 5.38, 5.1, 5.1, 4.71, 4.46, 4.05, 4.05, 6.04, 5.9, 6.83, 6.83, 8.02, 8.02, 8.02, 8.73, 9.0, 9.27, 10.28, 10.9, 11.9, 13.59, 15.22, 16.49, 17.1, 15.86, 11.64, 7.03, 5.82, 7.6, 7.03, 5.82, 4.57, 4.47, 5.36, 5.36, 5.73, 6.2, 6.64, 6.64, 6.64, 6.51, 6.1, 6.1, 5.88, 6.04, 6.16, 6.68, 6.71, 7.13, 7.51, 7.84, 7.74, 8.0, 7.81, 7.71, 7.48, 7.6, 8.0, 8.22, 8.72, 8.72, 8.72, 8.72, 8.72, 8.72, 8.72, 8.72, 8.72, 8.72, 8.72, 8.72, 8.72, 8.72, 8.72, 8.3, 8.48, 8.48, 8.48, 8.48, 8.42, 8.0, 7.81, 7.71, 7.71, 7.71, 7.48, 7.48, 6.95, 6.7, 6.51, 6.51, 6.79, 6.79, 6.28, 5.71, 5.71, 5.71, 5.71, 5.38, 5.38, 5.38, 4.46, 4.46, 4.05, 3.83, 5.21, 6.04, 6.7, 6.7, 7.59, 7.59, 8.02, 7.68, 8.31, 9.0, 9.62, 10.24, 11.25, 12.89, 14.51, 15.87, 16.12, 16.49, 14.49, 9.42, 6.44, 7.6, 7.35, 6.16, 5.51, 4.85, 4.82, 4.85, 6.17, 6.64, 6.64, 6.64, 6.64, 6.1, 6.1, 5.81, 5.88, 6.04, 6.6, 6.71, 7.15, 7.07, 7.4, 7.69, 7.58, 8.0, 7.81, 7.71, 7.48, 7.81, 8.22, 8.22, 8.3, 8.3, 8.72, 8.72, 8.72, 8.72, 8.72, 8.72, 8.72, 8.72, 8.72, 8.72, 8.72, 8.91, 8.91, 8.48, 8.48, 8.48, 8.48, 8.48, 8.0, 8.0, 7.81, 7.71, 7.71, 7.71, 7.71, 7.48, 6.95, 6.95, 6.51, 6.51, 6.51, 6.57, 6.01, 6.01, 5.71, 5.71, 5.71, 5.1, 5.1, 5.1, 4.73, 4.73, 4.47, 4.08, 4.1, 5.36, 6.04, 6.42, 7.18, 7.9, 8.31, 8.02, 6.95, 7.97, 9.34, 10.28, 11.28, 12.89, 13.87, 14.88, 15.5, 16.1, 15.99, 6.44, 6.44, 7.89, 7.21, 5.59, 5.09, 5.09, 5.09, 5.73, 6.2, 6.64, 7.08, 7.08, 7.08, 5.6, 5.6, 5.81, 6.04, 6.16, 6.68, 6.71, 7.13, 7.07, 7.26, 7.51, 8.0, 7.81, 7.81, 7.71, 7.71, 7.81, 7.81, 8.22, 8.22, 8.3, 8.3, 8.72, 8.72, 8.72, 8.72, 8.72, 8.72, 8.72, 8.72, 8.91, 8.91, 8.48, 8.48, 8.48, 8.48, 8.48, 8.48, 8.0, 8.0, 8.0, 7.81, 7.31, 7.31, 7.71, 7.71, 7.31, 6.95, 6.41, 6.15, 6.51, 6.51, 6.23, 5.69, 5.69, 5.69, 5.41, 5.1, 5.1, 5.1, 5.1, 4.73, 4.47, 4.75, 4.47, 4.12, 5.1, 5.36, 6.04, 7.27, 7.59, 7.97, 7.97, 7.68, 7.68, 9.0, 10.66, 11.66, 12.65, 13.25, 13.51, 14.88, 16.69, 12.7, 7.03, 6.4, 7.71, 7.42, 5.75, 5.29, 5.59, 6.02, 6.64, 7.08, 7.1, 7.54, 7.54, 7.54, 5.81, 5.81, 5.99, 6.16, 6.23, 6.71, 6.71, 7.07, 7.4, 7.69, 7.58, 8.0, 7.81, 7.71, 7.71, 7.71, 7.81, 7.81, 7.81, 8.22, 8.22, 8.3, 8.3, 8.3, 8.3, 8.3, 8.3, 8.3, 8.3, 8.48, 8.48, 8.48, 8.48, 8.48, 8.48, 8.48, 8.48, 8.48, 8.0, 8.0, 8.0, 8.0, 7.51, 7.51, 7.51, 7.51, 7.31, 6.8, 6.41, 6.41, 6.15, 6.51, 5.98, 5.69, 5.69, 5.69, 5.38, 5.38, 5.1, 5.1, 4.81, 4.75, 4.75, 4.75, 4.75, 4.43, 3.49, 3.49, 6.32, 7.4, 7.35, 7.68, 8.03, 7.68, 7.68, 9.04, 10.41, 11.66, 11.9, 12.27, 12.26, 13.89, 18.63, 14.3, 7.35, 5.75, 6.79, 7.21, 6.7, 6.28, 6.79, 6.79, 7.37, 7.37, 7.85, 7.85, 7.85, 7.85, 5.99, 5.99, 6.04, 6.16, 6.68, 6.71, 7.13, 7.07, 7.4, 7.69, 7.58, 8.0, 7.81, 7.71, 7.71, 7.71, 7.81, 7.81, 7.81, 7.81, 8.0, 8.42, 8.42, 8.48, 8.48, 8.48, 8.48, 8.48, 8.48, 8.48, 8.48, 8.48, 8.48, 8.48, 8.48, 8.48, 8.48, 8.48, 8.0, 8.0, 8.0, 8.0, 7.58, 7.51, 7.51, 7.51, 7.51, 6.8, 6.41, 6.41, 6.15, 6.15, 5.98, 5.65, 5.37, 5.08, 5.38, 5.38, 5.38, 5.08, 5.08, 5.08, 5.08, 5.06, 5.35, 4.74, 4.11, 3.2, 5.69, 6.73, 7.41, 7.41, 7.76, 7.68, 8.38, 8.79, 9.4, 10.66, 11.64, 11.25, 11.6, 12.62, 19.46, 17.42, 9.77, 5.6, 6.21, 7.82, 7.6, 8.0, 8.4, 8.4, 8.99, 8.56, 8.56, 8.56, 8.56, 8.56, 6.04, 6.04, 6.16, 6.23, 6.71, 6.71, 7.13, 7.4, 7.26, 7.69, 8.0, 8.0, 7.81, 7.71, 7.71, 7.71, 7.81, 8.0, 8.0, 8.0, 8.0, 8.0, 8.0, 8.42, 8.42, 8.48, 8.48, 8.48, 8.48, 8.48, 8.48, 8.48, 8.48, 8.48, 8.48, 8.48, 8.48, 8.48, 8.17, 8.17, 8.17, 7.74, 7.74, 7.69, 7.51, 7.09, 7.01, 6.8, 6.67, 6.41, 6.15, 5.93, 5.65, 5.65, 5.37, 5.37, 5.08, 5.08, 5.08, 5.08, 5.08, 5.06, 5.06, 5.35, 5.01, 5.01, 4.71, 4.11, 4.37, 7.15, 7.81, 7.06, 7.06, 7.68, 8.38, 8.79, 8.42, 10.04, 10.66, 10.98, 10.58, 14.26, 18.05, 20.05, 14.16, 7.2, 5.82, 7.67, 9.08, 9.08, 9.08, 9.6, 9.33, 9.49, 9.49, 9.24, 9.24, 9.24, 6.16, 6.16, 6.23, 6.26, 6.71, 7.13, 7.07, 7.4, 7.69, 7.58, 8.0, 7.81, 7.71, 7.71, 7.71, 7.71, 8.0, 8.0, 8.0, 8.0, 8.0, 8.0, 8.0, 8.0, 8.42, 8.42, 8.48, 8.48, 8.48, 8.48, 8.48, 8.48, 8.48, 8.48, 8.64, 8.64, 8.21, 8.17, 8.17, 8.17, 7.74, 7.74, 7.69, 7.26, 7.26, 7.01, 7.01, 6.8, 6.67, 6.41, 6.15, 5.93, 5.93, 5.93, 5.06, 5.06, 5.06, 5.06, 5.06, 5.06, 5.06, 5.06, 5.35, 5.01, 5.29, 5.29, 4.71, 4.11, 4.37, 6.11, 6.32, 7.06, 6.95, 7.68, 8.38, 8.38, 8.12, 8.79, 9.4, 10.01, 11.28, 13.64, 16.39, 20.46, 17.35, 10.0, 6.44, 7.85, 9.49, 9.33, 8.91, 9.08, 9.6, 9.66, 9.24, 9.36, 9.36, 9.36, 6.16, 6.16, 6.23, 6.71, 6.71, 7.13, 7.51, 7.4, 7.69, 7.58, 8.0, 7.81, 7.81, 7.81, 7.81, 8.0, 8.0, 8.0, 8.0, 8.17, 8.0, 8.0, 8.0, 8.0, 8.0, 8.0, 8.42, 8.48, 8.48, 8.48, 8.48, 8.48, 8.48, 8.64, 8.21, 8.21, 8.17, 8.17, 7.87, 7.87, 7.87, 7.84, 7.26, 7.26, 7.21, 7.01, 7.01, 6.8, 6.67, 6.41, 6.41, 5.59, 5.59, 5.59, 5.35, 5.35, 5.06, 4.75, 4.75, 5.06, 5.35, 5.35, 5.35, 5.29, 5.29, 4.94, 4.71, 4.65, 4.07, 5.37, 5.24, 6.32, 7.06, 7.4, 7.68, 8.38, 8.42, 8.82, 8.79, 10.66, 11.64, 13.19, 16.46, 19.51, 18.32, 12.15, 7.81, 8.14, 9.49, 9.08, 8.67, 9.08, 9.49, 9.77, 9.36, 9.77, 9.77, 9.77, 6.23, 6.23, 6.26, 6.71, 7.13, 7.07, 7.4, 7.69, 7.58, 8.0, 7.81, 7.81, 7.81, 7.81, 8.0, 8.0, 8.17, 7.74, 7.74, 7.74, 7.74, 7.74, 8.0, 8.0, 8.0, 8.0, 8.0, 8.42, 8.48, 8.48, 8.48, 8.48, 8.21, 8.21, 8.17, 8.17, 7.87, 7.87, 7.87, 7.84, 7.4, 7.4, 7.26, 7.21, 6.79, 7.01, 7.01, 6.8, 6.67, 6.41, 6.03, 5.86, 5.86, 5.49, 5.29, 5.01, 4.74, 4.74, 4.74, 5.01, 5.01, 5.01, 5.29, 5.29, 5.29, 4.94, 4.65, 4.65, 4.07, 3.79, 4.41, 6.55, 6.79, 7.15, 7.41, 8.82, 9.03, 9.03, 9.42, 10.63, 11.6, 13.64, 16.03, 18.82, 18.58, 13.19, 8.82, 8.24, 8.8, 9.2, 8.8, 8.8, 9.2, 10.0, 10.0, 10.32, 10.32, 10.32, 6.23, 6.23, 6.26, 6.71, 7.13, 7.51, 7.4, 7.69, 7.58, 8.0, 7.81, 7.81, 8.0, 8.0, 8.0, 8.17, 8.17, 7.74, 7.74, 7.74, 7.74, 7.74, 7.74, 7.58, 8.0, 8.0, 8.0, 8.0, 8.0, 8.0, 8.0, 8.17, 8.17, 8.17, 8.17, 7.87, 7.87, 7.87, 7.4, 7.4, 7.4, 7.4, 6.94, 6.79, 6.79, 6.6, 6.6, 6.67, 6.67, 6.28, 6.28, 6.13, 5.75, 5.49, 5.29, 4.94, 4.71, 4.71, 5.05, 5.01, 5.01, 5.29, 5.29, 5.29, 5.29, 5.21, 4.84, 4.65, 4.07, 4.0, 4.0, 6.6, 6.55, 7.81, 7.82, 8.8, 9.36, 9.42, 10.0, 10.85, 12.04, 13.91, 15.77, 17.89, 18.2, 14.39, 10.04, 8.43, 8.8, 8.88, 8.88, 8.88, 9.45, 10.0, 10.68, 10.95, 10.95, 10.95, 6.26, 6.26, 6.71, 7.13, 7.07, 7.4, 7.69, 7.58, 8.0, 8.0, 8.0, 8.0, 8.0, 8.0, 8.21, 8.17, 8.17, 8.17, 7.74, 7.74, 7.74, 7.74, 7.74, 7.58, 8.0, 8.0, 8.0, 8.0, 8.0, 8.0, 8.0, 8.17, 8.17, 8.17, 8.17, 7.87, 7.87, 7.84, 7.4, 7.4, 7.4, 6.94, 6.94, 6.79, 6.79, 6.6, 6.6, 6.4, 6.28, 6.28, 6.28, 6.28, 5.75, 5.37, 5.21, 5.21, 4.71, 4.71, 5.29, 5.29, 5.29, 5.29, 5.29, 5.29, 5.58, 5.21, 5.21, 4.93, 4.55, 4.0, 4.17, 4.55, 5.08, 9.03, 8.48, 9.13, 9.36, 9.81, 10.0, 10.96, 11.92, 13.91, 15.1, 16.71, 17.67, 15.43, 11.28, 9.43, 9.05, 9.43, 9.43, 9.43, 9.84, 10.4, 10.79, 11.61, 11.61, 11.61, 6.26, 6.26, 6.71, 7.13, 7.07, 7.4, 7.69, 7.58, 8.0, 8.0, 8.0, 8.0, 8.0, 8.0, 8.21, 8.17, 8.17, 8.17, 7.74, 7.74, 7.74, 7.74, 7.74, 7.58, 8.0, 8.0, 8.0, 8.0, 8.0, 8.0, 8.0, 8.17, 8.17, 8.17, 8.17, 7.87, 7.87, 7.84, 7.4, 7.4, 7.4, 6.94, 6.94, 6.79, 6.79, 6.6, 6.6, 6.4, 6.28, 6.28, 6.28, 6.28, 5.75, 5.37, 5.21, 5.21, 4.71, 4.71, 5.29, 5.29, 5.29, 5.29, 5.29, 5.29, 5.58, 5.21, 5.21, 4.93, 4.55, 4.0, 4.17, 4.55, 5.08, 9.03, 8.48, 9.13, 9.42, 9.81, 10.0, 10.96, 11.92, 13.39, 14.58, 15.66, 16.31, 15.43, 12.65, 10.01, 9.4, 9.4, 9.4, 9.81, 10.04, 10.96, 11.37, 11.61, 11.61, 11.61]}, {"header": {"dx": 0.06612293990616946, "dy": 0.0552356325346848, "nx": 98, "ny": 59, "la1": 35.046912555036876, "la2": 31.78801023549047, "lo1": -121.43107172385933, "lo2": -114.95102361305473, "refTime": "2026041221", "parameterCategory": 1, "parameterNumber": 3}, "data": [2.3, 2.3, 2.3, 2.3, 2.19, 2.33, 2.33, 2.21, 1.81, 1.71, 1.71, 1.61, 1.75, 1.68, 1.68, 1.68, 1.93, 2.83, 2.49, 3.87, 3.87, 3.87, 3.49, 3.21, 3.21, 3.49, 4.2, 5.06, 5.14, 5.86, 5.86, 5.14, 5.14, 5.14, 4.3, 2.51, 0.8, -0.85, -2.47, -3.48, -3.07, -2.64, -1.25, 0.0, 3.8, 6.42, 9.17, 10.92, 11.6, 11.6, 11.6, 12.26, 12.26, 12.22, 11.47, 10.65, 9.77, 8.99, 8.43, 8.18, 8.18, 7.59, 7.23, 6.6, 7.36, 8.18, 9.06, 8.66, 8.56, 8.31, 8.31, 8.05, 8.18, 7.49, 7.49, 6.52, 5.67, 4.39, 3.34, 2.6, 1.73, 2.48, 1.08, 0.0, -1.84, -2.23, 0.0, 2.69, 6.18, 8.42, 9.43, 10.04, 10.4, 9.42, 9.03, 8.42, 7.68, 6.83, 1.75, 1.75, 1.75, 1.67, 1.67, 1.78, 1.69, 1.69, 1.71, 1.71, 1.73, 1.75, 1.75, 1.6, 1.22, 1.22, 1.75, 2.49, 2.7, 3.45, 3.87, 3.87, 3.87, 3.87, 2.69, 3.45, 3.45, 5.06, 6.0, 6.84, 7.36, 7.48, 7.36, 6.84, 5.0, 3.51, 1.75, 0.0, -2.68, -4.02, -3.93, -1.23, 0.0, 3.91, 7.48, 9.89, 10.92, 10.92, 11.25, 11.25, 11.6, 11.95, 11.54, 10.78, 10.37, 9.77, 8.99, 8.43, 8.43, 8.18, 8.18, 7.23, 7.23, 7.13, 8.3, 9.17, 9.48, 9.7, 9.89, 9.77, 8.99, 9.11, 8.05, 7.49, 6.52, 5.86, 5.15, 4.39, 3.34, 2.6, 1.73, 2.48, 1.08, 0.0, -1.84, -2.23, 0.0, 2.69, 6.18, 8.42, 9.43, 10.04, 10.4, 9.42, 9.03, 8.42, 7.68, 6.83, 1.75, 1.75, 1.75, 1.67, 1.67, 1.78, 1.69, 1.14, 1.16, 1.16, 1.18, 1.18, 1.68, 1.68, 1.6, 1.6, 1.75, 1.75, 2.57, 2.7, 2.69, 2.58, 3.52, 3.52, 3.7, 3.6, 4.34, 5.06, 5.64, 6.83, 7.59, 9.0, 10.37, 9.8, 6.7, 5.46, 3.91, 1.13, 0.0, -1.2, 0.0, 3.0, 6.24, 9.0, 9.96, 9.89, 9.89, 10.24, 10.58, 10.92, 11.6, 11.2, 10.84, 10.01, 9.37, 8.99, 8.99, 8.99, 8.99, 8.18, 8.18, 7.23, 7.13, 8.01, 9.26, 10.24, 10.43, 10.65, 10.83, 10.43, 9.66, 8.18, 7.13, 6.65, 5.86, 4.87, 4.13, 4.24, 2.93, 1.76, 0.96, 1.27, 0.0, -1.84, -2.31, -0.79, 2.26, 5.53, 7.76, 9.43, 10.04, 10.04, 9.81, 9.36, 8.43, 7.76, 6.53, 6.04, 1.75, 1.75, 1.67, 1.67, 1.12, 1.2, 1.14, 1.14, 1.16, 1.09, 1.18, 0.59, 0.81, 1.6, 1.68, 1.6, 0.89, 0.89, 1.75, 1.75, 1.67, 1.2, 1.32, 2.4, 4.12, 4.88, 5.46, 5.21, 5.24, 5.06, 7.07, 9.6, 10.66, 11.29, 8.85, 6.95, 6.98, 5.1, 3.72, 4.87, 6.73, 8.38, 9.0, 9.26, 9.26, 9.17, 9.56, 9.89, 10.58, 10.92, 10.15, 10.12, 10.12, 9.7, 9.6, 9.11, 8.99, 8.99, 8.99, 8.18, 8.18, 7.36, 8.3, 9.26, 10.63, 11.6, 12.16, 12.07, 11.64, 10.87, 9.8, 8.06, 6.52, 5.6, 4.55, 4.0, 3.25, 2.47, 2.44, 0.89, 0.0, 0.0, -1.98, -1.84, 0.0, 2.64, 6.45, 7.81, 8.82, 9.43, 9.67, 9.43, 9.03, 8.8, 7.81, 6.95, 6.04, 6.18, 1.75, 1.75, 1.12, 1.12, 1.12, 1.14, 1.14, 1.14, 0.58, 0.55, 0.59, 0.56, 0.89, 0.89, 0.89, 0.81, 0.77, 0.85, 0.0, 0.8, 1.26, 1.14, 1.18, 1.32, 3.33, 4.96, 6.58, 6.01, 5.37, 4.98, 6.7, 8.3, 8.43, 7.27, 8.22, 8.49, 9.09, 7.56, 6.04, 7.76, 9.43, 9.43, 9.0, 8.53, 8.53, 9.26, 9.59, 9.89, 10.22, 9.8, 9.8, 9.06, 9.36, 9.4, 9.6, 9.89, 9.39, 8.99, 8.99, 8.18, 7.74, 7.9, 9.26, 11.03, 12.65, 13.23, 13.18, 13.12, 12.23, 11.65, 10.59, 8.99, 7.25, 5.67, 4.36, 2.93, 1.71, 1.65, 0.85, 0.0, -1.98, -3.48, -3.0, -1.03, 2.99, 6.82, 8.8, 8.82, 9.42, 9.4, 9.76, 9.43, 8.8, 7.82, 6.73, 5.76, 5.21, 6.64, 1.18, 1.18, 1.12, 1.12, 1.12, 0.57, 0.57, 0.57, 0.58, 0.55, 0.59, 0.0, 0.0, 0.0, 0.0, 0.0, 0.0, 0.0, 0.0, 0.0, 0.0, 1.65, 2.54, 3.91, 4.75, 5.03, 6.01, 7.21, 6.7, 6.8, 6.16, 5.58, 4.29, 4.03, 5.94, 7.97, 8.22, 7.64, 6.31, 7.2, 8.3, 10.0, 8.31, 8.53, 8.93, 9.62, 9.96, 9.26, 9.17, 9.17, 8.3, 9.06, 9.06, 9.8, 10.01, 9.89, 9.89, 9.11, 8.18, 8.31, 7.9, 8.93, 11.26, 13.25, 14.46, 14.88, 13.46, 12.42, 12.33, 11.65, 10.73, 9.67, 8.74, 6.4, 4.81, 2.53, 1.64, 0.85, 0.0, -1.05, -4.4, -5.37, -2.99, 2.2, 6.57, 8.3, 8.8, 9.42, 9.43, 9.0, 9.34, 9.43, 8.21, 6.45, 5.36, 5.21, 6.18, 7.06, 1.12, 1.12, 1.12, 1.12, 0.56, 0.57, 0.57, 0.57, 0.58, 0.0, 0.0, 0.0, 0.0, 0.0, 0.0, 0.0, 0.0, 0.0, 0.0, 0.0, 0.0, 0.83, 1.63, 4.42, 6.01, 5.69, 6.01, 6.87, 7.64, 7.15, 6.28, 4.54, 3.35, 3.91, 6.06, 8.03, 8.22, 8.51, 7.56, 6.21, 7.89, 7.2, 8.0, 9.48, 9.66, 9.62, 9.56, 9.26, 8.22, 8.24, 9.17, 9.17, 9.8, 9.8, 9.7, 9.11, 8.84, 8.05, 7.49, 7.9, 9.0, 10.63, 13.11, 14.71, 14.85, 14.5, 13.04, 12.01, 11.59, 10.59, 9.92, 8.47, 7.5, 5.79, 4.0, 3.32, 1.76, 0.0, 0.0, -3.22, -5.4, -4.98, 0.0, 6.88, 8.56, 8.4, 8.8, 8.79, 9.0, 8.93, 8.27, 7.68, 6.79, 5.69, 4.5, 5.36, 7.06, 8.42, 1.12, 0.56, 0.56, 0.56, 0.56, 0.56, 0.0, 0.0, 0.0, 0.0, 0.0, 0.0, 0.0, 0.0, 0.0, 0.0, 0.0, 0.0, 0.0, 0.0, 0.0, 0.0, 0.0, 1.84, 3.47, 4.75, 5.06, 5.93, 7.44, 6.87, 6.28, 5.75, 6.23, 7.2, 7.06, 7.02, 5.38, 5.52, 6.24, 6.9, 6.58, 7.21, 7.44, 8.37, 8.94, 9.42, 8.6, 8.22, 9.0, 9.76, 8.22, 9.17, 9.8, 9.8, 9.24, 8.95, 8.18, 7.38, 7.51, 8.31, 10.0, 12.72, 14.33, 14.71, 14.26, 13.85, 12.23, 10.71, 9.12, 8.03, 6.59, 5.72, 4.19, 3.38, 2.47, 1.44, 0.85, 0.0, -1.99, -4.29, -2.98, -1.2, 5.29, 8.33, 8.4, 8.24, 8.3, 8.73, 8.53, 8.42, 6.79, 6.01, 5.69, 4.68, 5.36, 6.18, 8.12, 9.43, 0.56, 0.56, 0.56, 0.56, 0.56, 0.0, 0.0, 0.0, 0.0, 0.0, 0.0, -0.57, 0.0, 0.0, 0.0, 0.0, 0.0, 0.0, 0.0, 0.95, 1.4, 0.0, 0.0, 0.0, 1.83, 2.8, 4.11, 4.65, 4.75, 6.01, 5.93, 6.79, 7.63, 7.44, 6.32, 4.71, 2.54, 2.66, 3.91, 5.06, 7.2, 7.07, 7.21, 7.81, 8.15, 7.27, 8.75, 9.08, 10.28, 10.98, 11.17, 9.96, 9.89, 9.8, 9.06, 9.06, 8.01, 7.36, 7.13, 8.82, 11.61, 13.23, 13.11, 13.83, 13.26, 12.42, 11.37, 9.67, 7.4, 4.85, 3.16, 2.15, 0.84, 0.0, 0.0, 0.0, 0.0, -0.96, -2.73, -1.13, 2.84, 3.9, 7.89, 8.4, 8.24, 7.95, 8.3, 8.22, 7.44, 6.62, 5.28, 4.03, 3.9, 5.53, 6.53, 8.02, 9.16, 9.81, 0.56, 0.56, 0.56, 0.0, 0.0, 0.0, 0.0, 0.0, 0.0, -0.58, -0.59, -0.56, -0.59, -0.55, 0.0, 0.0, 0.0, 0.89, 1.47, 2.54, 1.49, 1.4, 1.32, 1.52, 2.6, 3.76, 4.43, 4.11, 5.06, 5.69, 5.93, 6.23, 6.13, 5.93, 4.96, 4.44, 2.49, 2.53, 5.06, 6.63, 6.73, 6.64, 6.53, 6.24, 6.24, 7.35, 7.27, 8.65, 10.63, 11.9, 11.6, 11.6, 10.58, 9.89, 9.56, 9.89, 9.17, 7.9, 7.81, 10.41, 13.01, 14.64, 15.02, 13.43, 13.26, 12.09, 10.86, 8.97, 6.6, 4.19, 1.63, 0.74, 0.0, 0.0, -0.73, -0.84, -1.19, 0.0, 0.0, 4.0, 6.94, 9.08, 8.91, 9.2, 8.32, 8.27, 8.22, 7.36, 6.53, 5.3, 4.0, 3.33, 4.87, 6.64, 7.9, 9.0, 9.4, 9.4, 0.0, 0.0, 0.0, 0.0, 0.0, 0.0, 0.0, 0.0, -0.57, -0.58, -0.55, -1.18, -1.09, -1.09, -0.93, 0.0, 0.0, 0.58, 1.69, 1.69, 1.68, 1.94, 2.69, 2.99, 2.66, 3.0, 4.29, 5.06, 5.93, 5.69, 5.03, 4.74, 4.74, 2.64, 2.4, 3.52, 4.46, 5.37, 5.69, 6.24, 6.31, 6.04, 5.76, 6.01, 6.32, 6.73, 7.02, 8.03, 9.66, 10.63, 12.26, 13.26, 12.89, 12.27, 12.62, 13.83, 13.87, 10.66, 8.72, 11.51, 15.45, 16.27, 14.71, 14.22, 13.89, 13.8, 12.87, 12.02, 9.8, 6.73, 4.93, 2.95, 1.5, 0.0, -1.72, -2.8, 0.0, 3.13, 5.94, 8.48, 8.8, 8.93, 9.56, 8.94, 8.93, 8.53, 8.09, 6.77, 5.2, 3.78, 3.27, 4.87, 6.45, 7.68, 8.64, 9.34, 10.04, 9.0, 0.0, 0.0, 0.0, 0.0, 0.0, 0.0, 0.0, -0.57, -0.57, -0.58, -0.55, -1.09, -1.71, -1.71, -1.71, -1.2, 0.0, 0.0, 0.59, 1.1, 1.1, 1.16, 1.14, 1.16, 2.4, 2.82, 4.14, 3.47, 3.77, 3.6, 3.8, 3.6, 2.99, 1.63, 0.79, 1.65, 3.8, 4.96, 4.96, 5.06, 5.9, 5.64, 5.89, 6.01, 5.69, 6.44, 8.54, 9.6, 9.86, 10.55, 11.83, 13.1, 13.99, 15.1, 14.92, 16.7, 17.5, 14.49, 10.85, 12.96, 16.46, 17.19, 15.66, 14.71, 14.85, 16.48, 18.47, 18.44, 17.1, 15.12, 12.42, 8.79, 4.83, 0.0, -3.58, -1.27, 3.82, 6.88, 8.24, 8.93, 9.4, 9.34, 9.96, 9.62, 9.53, 8.73, 7.54, 5.99, 4.5, 3.7, 3.79, 5.37, 7.06, 8.38, 9.0, 9.34, 9.0, 8.64, 0.0, 0.0, 0.0, 0.0, 0.0, 0.0, -0.56, -0.57, -0.57, -0.58, -1.16, -1.16, -1.71, -1.71, -1.71, -1.69, -1.18, -0.59, -0.55, 0.0, 0.0, 0.0, 0.0, 0.0, 0.59, 1.63, 2.92, 2.73, 2.26, 1.1, 1.67, 2.44, 1.75, 0.79, 0.79, 1.55, 2.31, 3.8, 4.0, 4.83, 5.64, 6.53, 5.59, 5.77, 6.52, 7.81, 9.63, 9.6, 9.6, 9.6, 9.84, 10.48, 11.72, 13.09, 15.02, 15.74, 16.6, 15.64, 12.23, 12.96, 15.65, 15.77, 14.71, 13.64, 15.0, 16.85, 19.34, 21.92, 21.59, 21.68, 19.41, 15.04, 7.64, 0.0, -3.16, 3.72, 8.77, 10.63, 10.19, 10.18, 9.53, 9.06, 9.48, 8.84, 10.01, 9.11, 6.65, 4.68, 3.61, 3.91, 5.3, 6.68, 7.68, 8.73, 8.64, 8.64, 8.31, 8.31, 0.0, 0.0, 0.0, 0.0, -0.56, -0.56, -0.56, -0.57, -1.14, -1.07, -1.16, -1.71, -1.61, -1.61, -1.71, -1.69, -1.67, -1.75, -1.73, -1.16, -1.16, -0.55, -0.56, -0.56, 0.0, 1.14, 2.19, 2.86, 2.37, 1.09, 1.18, 1.67, 1.26, 1.55, 2.4, 2.4, 2.99, 4.96, 5.76, 5.64, 6.14, 5.76, 6.32, 6.52, 6.7, 8.22, 7.89, 8.8, 8.54, 9.2, 8.72, 8.8, 9.11, 9.77, 10.04, 9.83, 11.2, 12.8, 13.9, 12.94, 13.86, 14.31, 13.2, 12.6, 12.58, 13.72, 14.77, 15.61, 17.59, 16.45, 17.24, 14.84, 7.45, 0.0, 3.13, 10.14, 13.19, 13.23, 12.42, 11.29, 9.89, 9.11, 8.1, 7.34, 8.1, 7.59, 4.93, 3.51, 3.8, 5.21, 6.32, 6.95, 7.64, 8.31, 7.59, 7.48, 7.9, 8.31, 0.0, 0.0, 0.0, -0.56, -0.56, -0.56, -0.56, -1.14, -1.14, -1.14, -1.16, -1.09, -1.18, -1.09, -1.71, -1.69, -1.78, -2.19, -2.3, -2.3, -1.65, -1.73, -1.65, -1.67, -0.56, 0.59, 2.28, 2.83, 2.21, 1.61, 1.18, 1.1, 2.46, 3.52, 3.52, 4.66, 6.69, 6.53, 6.71, 6.04, 5.76, 6.01, 6.01, 6.01, 7.07, 7.6, 8.22, 7.76, 7.64, 7.64, 8.0, 8.15, 7.63, 6.58, 6.23, 6.8, 7.21, 9.56, 12.76, 13.57, 12.27, 11.03, 10.6, 10.18, 10.91, 11.13, 11.62, 11.2, 10.59, 11.7, 11.53, 10.13, 4.79, 1.67, 8.56, 14.84, 15.5, 14.42, 12.87, 11.25, 10.59, 8.86, 7.25, 5.8, 3.68, 4.98, 4.17, 4.2, 5.21, 7.27, 7.59, 7.64, 7.94, 7.9, 7.78, 7.9, 9.4, 9.4, 0.0, -0.56, -0.56, -0.56, -0.56, -0.56, -1.12, -1.14, -1.14, -1.14, -1.16, -1.09, -1.18, -1.09, -1.71, -1.69, -1.78, -2.19, -2.19, -2.19, -2.3, -2.3, -2.3, -2.19, -0.59, 1.1, 2.25, 2.97, 2.21, 2.23, 1.73, 2.75, 3.4, 4.6, 5.98, 6.14, 7.18, 6.42, 5.98, 4.66, 4.83, 4.83, 6.32, 6.87, 7.44, 7.44, 7.44, 7.44, 7.21, 6.64, 6.95, 7.56, 6.87, 6.13, 5.01, 5.36, 6.32, 9.2, 11.6, 11.12, 9.65, 8.8, 7.76, 7.81, 7.63, 8.17, 8.0, 8.72, 9.08, 9.22, 8.25, 6.18, 3.22, 6.7, 13.11, 15.82, 15.11, 13.07, 12.19, 11.4, 10.35, 8.99, 6.52, 4.87, 2.59, 3.45, 4.4, 6.04, 7.59, 8.22, 8.53, 7.9, 7.44, 7.44, 7.22, 8.3, 9.56, 9.56, -0.56, -0.56, -0.56, -0.56, -1.12, -1.12, -1.12, -1.14, -1.14, -1.16, -1.09, -1.18, -1.18, -1.09, -1.71, -1.69, -2.33, -2.33, -2.19, -2.19, -2.19, -2.83, -2.83, -2.3, -0.59, 1.15, 2.93, 3.32, 2.89, 2.92, 3.83, 4.71, 5.72, 7.24, 6.05, 6.79, 6.7, 5.98, 4.96, 4.46, 5.31, 5.69, 7.21, 6.11, 7.44, 7.44, 7.81, 7.21, 6.3, 6.3, 6.01, 5.72, 5.44, 6.01, 6.01, 6.52, 7.07, 6.87, 7.47, 7.9, 7.9, 6.87, 5.93, 5.75, 5.81, 5.75, 6.8, 6.87, 8.53, 8.94, 6.81, 4.52, 5.69, 9.89, 13.89, 13.8, 12.77, 11.28, 9.89, 9.79, 8.96, 8.39, 6.65, 4.4, 4.5, 5.53, 5.36, 8.53, 8.85, 8.76, 8.16, 7.52, 7.52, 7.85, 8.53, 8.93, 9.57, 9.57, -0.56, -0.56, -1.12, -1.12, -1.12, -1.12, -1.12, -1.69, -1.69, -1.16, -1.18, -1.18, -1.18, -1.61, -1.71, -1.69, -2.33, -2.86, -2.86, -2.86, -3.01, -3.52, -3.52, -1.65, 0.0, 2.17, 3.8, 4.03, 4.03, 4.69, 5.72, 6.08, 5.98, 5.06, 5.32, 5.76, 4.83, 4.88, 4.96, 5.31, 6.01, 6.32, 6.32, 6.32, 6.87, 6.87, 6.64, 6.01, 5.72, 5.1, 4.66, 4.71, 4.46, 4.71, 6.32, 6.87, 7.44, 6.87, 6.64, 6.69, 6.69, 7.21, 6.7, 6.13, 5.75, 4.84, 5.43, 7.07, 6.98, 6.9, 5.65, 6.54, 9.07, 10.59, 10.95, 9.92, 8.83, 8.26, 7.34, 7.4, 6.66, 6.6, 5.72, 6.24, 8.02, 8.93, 9.17, 8.85, 9.17, 9.8, 9.06, 8.42, 7.52, 8.9, 9.96, 9.96, 9.21, 9.21, -0.56, -1.12, -1.12, -1.12, -1.12, -1.12, -1.67, -1.69, -1.16, -1.09, -1.18, -1.18, -1.73, -1.71, -1.71, -2.59, -2.37, -2.21, -2.33, -2.86, -3.52, -4.44, -4.0, -0.82, 2.39, 6.16, 5.1, 6.84, 6.7, 6.35, 6.34, 5.95, 5.26, 4.6, 4.16, 4.0, 3.56, 3.56, 4.2, 5.1, 4.96, 5.63, 5.46, 6.01, 6.01, 6.32, 6.01, 5.21, 4.88, 5.1, 4.88, 4.96, 5.72, 5.72, 7.56, 7.56, 7.81, 8.0, 8.15, 6.98, 7.27, 8.0, 8.15, 6.44, 6.44, 6.44, 6.44, 6.39, 5.64, 5.6, 5.56, 8.14, 9.06, 8.26, 5.67, 3.22, 1.65, 2.4, 3.24, 4.16, 4.06, 5.14, 6.31, 7.59, 9.26, 9.48, 9.06, 8.79, 9.48, 9.48, 10.12, 9.06, 9.26, 9.57, 10.58, 10.58, 9.89, 9.89, -1.12, -1.12, -1.12, -1.12, -1.67, -1.67, -1.78, -1.14, -1.16, -1.18, -1.18, -1.73, -1.73, -1.71, -2.37, -2.21, -2.21, -2.21, -2.59, -3.21, -4.4, -4.71, -2.89, 0.85, 5.41, 7.24, 7.51, 5.95, 6.33, 6.07, 5.67, 5.02, 4.57, 4.12, 3.94, 3.32, 3.35, 3.35, 3.35, 3.52, 3.52, 4.03, 3.37, 3.4, 4.1, 5.21, 4.96, 5.46, 5.1, 4.88, 4.66, 6.01, 6.64, 7.56, 6.73, 7.81, 8.73, 8.06, 7.68, 7.9, 7.56, 8.15, 7.76, 7.76, 7.42, 7.44, 7.81, 6.95, 5.52, 4.75, 4.85, 5.79, 5.72, 3.29, 0.0, -2.44, -3.98, -2.5, 0.86, 2.61, 3.51, 4.4, 5.9, 7.78, 8.3, 8.01, 8.01, 8.37, 8.79, 8.85, 9.48, 10.12, 9.89, 10.63, 10.52, 10.75, 10.01, 10.01, -1.12, -1.12, -1.12, -1.78, -1.78, -1.78, -1.69, -1.16, -1.09, -1.18, -1.73, -1.73, -1.71, -2.23, -2.37, -2.33, -2.33, -2.33, -2.33, -3.36, -3.49, -2.75, -0.55, 2.86, 5.69, 6.58, 5.67, 5.67, 5.67, 5.23, 4.57, 4.57, 4.57, 3.91, 4.12, 3.94, 3.49, 3.32, 3.52, 3.52, 3.52, 3.56, 3.37, 3.4, 4.1, 6.01, 6.01, 4.88, 5.1, 5.1, 6.3, 6.95, 7.27, 7.56, 7.56, 7.44, 8.43, 7.68, 7.27, 6.64, 7.81, 8.15, 8.15, 8.0, 8.05, 8.43, 8.06, 7.59, 7.36, 6.43, 6.35, 7.33, 6.54, 1.6, -3.44, -5.86, -5.18, -3.51, 0.0, 2.59, 4.92, 6.57, 6.7, 6.87, 6.56, 7.51, 8.01, 8.49, 8.79, 8.53, 9.17, 10.51, 10.84, 10.15, 10.12, 10.07, 9.66, 9.66, -1.12, -1.12, -1.78, -1.78, -1.69, -1.69, -1.16, -1.16, -1.09, -1.61, -1.71, -1.71, -2.23, -2.23, -2.21, -2.86, -2.86, -3.01, -2.83, -3.49, -2.86, -1.69, 0.57, 3.94, 5.67, 6.31, 5.67, 5.23, 5.23, 4.76, 4.57, 4.57, 4.57, 4.57, 4.57, 3.91, 4.12, 3.45, 3.49, 3.97, 4.0, 4.03, 3.81, 4.08, 4.47, 5.08, 5.98, 5.1, 5.98, 6.58, 7.27, 7.27, 7.27, 7.56, 7.44, 8.15, 8.43, 6.32, 5.31, 6.28, 6.8, 7.82, 8.05, 8.43, 9.05, 9.05, 8.42, 7.97, 8.22, 9.48, 10.43, 12.98, 12.21, 4.81, -4.02, -2.98, -2.0, -0.88, 0.78, 4.71, 6.84, 7.54, 8.05, 7.49, 7.38, 7.51, 9.26, 9.89, 9.48, 8.85, 8.85, 9.48, 10.43, 10.07, 9.37, 8.85, 8.72, 8.72, -1.12, -1.12, -1.2, -1.69, -1.14, -1.16, -1.16, -1.16, -1.71, -1.71, -1.71, -2.23, -2.23, -2.37, -2.71, -2.86, -2.86, -3.52, -3.32, -3.97, -3.49, -1.75, 0.56, 3.91, 5.89, 6.31, 5.67, 5.67, 5.0, 5.0, 4.54, 4.57, 4.57, 4.57, 4.57, 4.57, 4.08, 4.12, 3.94, 4.16, 3.97, 4.0, 4.03, 4.46, 4.73, 5.38, 5.98, 6.3, 6.58, 7.27, 7.27, 7.59, 7.27, 6.64, 7.07, 8.0, 6.39, 5.89, 4.75, 5.6, 7.37, 8.3, 9.03, 9.42, 9.81, 9.43, 9.04, 7.68, 8.38, 9.04, 9.42, 11.06, 7.28, 1.49, 4.47, 2.98, 2.76, 2.29, 3.2, 4.6, 5.86, 7.49, 7.36, 7.36, 8.45, 9.89, 10.98, 10.58, 10.84, 10.01, 9.17, 9.1, 9.37, 8.85, 8.85, 8.1, 8.1, 8.1, -1.12, -1.12, -1.14, -1.14, -1.16, -1.16, -1.16, -1.71, -1.71, -1.71, -2.23, -2.23, -2.37, -2.37, -2.86, -2.86, -3.52, -3.52, -3.32, -3.97, -3.97, -1.65, 1.1, 5.23, 6.31, 6.31, 5.89, 5.64, 5.2, 5.2, 5.2, 4.76, 4.57, 4.57, 4.54, 4.54, 4.54, 4.57, 4.12, 3.94, 4.63, 4.66, 4.69, 4.71, 5.1, 5.1, 6.24, 6.24, 6.98, 6.98, 7.59, 7.27, 6.3, 6.64, 6.28, 6.28, 5.69, 7.35, 6.87, 7.63, 7.85, 8.56, 9.36, 9.42, 9.05, 9.05, 8.73, 8.53, 7.68, 7.35, 5.76, 5.68, 7.68, 5.65, 3.82, 3.61, 3.77, 3.77, 2.6, 2.28, 2.95, 3.6, 4.55, 7.19, 10.58, 11.25, 11.25, 10.51, 10.75, 11.38, 9.7, 8.29, 7.85, 8.1, 8.1, 7.25, 7.85, 7.85, -1.14, -1.14, -1.14, -1.07, -1.16, -1.16, -1.71, -1.71, -1.71, -2.23, -2.23, -2.37, -2.37, -2.89, -2.86, -2.86, -3.52, -3.52, -4.0, -4.66, -3.97, -1.16, 2.9, 5.89, 6.96, 6.31, 5.89, 5.64, 5.4, 5.17, 5.2, 4.54, 4.76, 4.76, 4.54, 4.54, 4.54, 4.54, 4.57, 4.6, 4.63, 4.66, 5.08, 5.09, 5.36, 5.09, 4.45, 4.69, 4.44, 4.69, 4.46, 6.3, 6.64, 6.32, 6.63, 6.32, 6.95, 8.03, 10.16, 9.6, 9.21, 8.17, 7.82, 8.05, 8.06, 8.03, 8.31, 8.31, 8.31, 3.88, 2.34, 2.37, 8.12, 9.93, 5.91, 3.14, 1.48, 0.86, 0.0, 0.0, 0.0, 0.71, 4.4, 8.9, 11.64, 11.6, 11.6, 10.51, 10.75, 11.01, 10.59, 8.51, 7.34, 7.13, 7.11, 7.34, 7.69, 7.69, -1.14, -1.14, -1.14, -1.16, -1.16, -1.16, -1.71, -1.71, -2.23, -2.23, -2.37, -2.37, -2.89, -2.89, -2.86, -2.86, -3.01, -3.52, -3.97, -4.42, -3.49, 0.0, 4.76, 6.56, 6.56, 6.31, 5.64, 5.86, 5.17, 5.17, 5.2, 5.0, 4.76, 4.54, 4.54, 4.72, 4.72, 4.05, 4.08, 4.6, 4.63, 5.06, 5.72, 5.72, 5.72, 5.08, 4.66, 4.66, 4.2, 4.0, 3.81, 4.1, 6.01, 7.21, 7.56, 7.27, 7.59, 8.94, 10.8, 10.55, 8.94, 8.0, 6.18, 7.03, 8.05, 8.03, 8.31, 8.31, 6.57, 4.8, 3.29, 3.36, 6.52, 10.86, 10.93, 6.59, 2.19, 0.0, 0.0, 0.0, 0.0, 2.23, 7.64, 11.12, 12.72, 12.22, 11.54, 10.43, 10.31, 9.58, 10.59, 9.34, 7.16, 6.36, 7.19, 7.49, 7.44, 7.44, -1.14, -1.14, -1.14, -1.16, -1.16, -1.71, -1.71, -1.71, -2.23, -2.37, -2.89, -2.89, -2.89, -2.89, -2.86, -2.86, -3.01, -3.32, -3.97, -3.97, -1.65, 2.25, 5.89, 6.56, 6.31, 5.64, 5.86, 5.17, 5.17, 5.17, 5.2, 5.2, 5.0, 5.0, 4.72, 4.72, 4.05, 4.57, 4.8, 5.26, 5.69, 5.95, 5.7, 5.72, 5.32, 4.63, 4.42, 3.97, 3.97, 3.49, 4.03, 4.46, 5.1, 6.01, 7.59, 7.48, 9.08, 8.94, 9.03, 9.3, 9.08, 7.27, 7.44, 7.89, 9.1, 8.03, 8.31, 7.18, 6.57, 5.51, 4.06, 4.0, 4.75, 8.2, 11.14, 9.93, 5.62, 1.52, 1.01, 2.67, 3.8, 7.02, 10.94, 12.13, 11.79, 11.8, 11.38, 10.65, 9.89, 8.99, 9.02, 9.5, 8.99, 7.74, 7.54, 7.44, 7.44, 7.44, -1.14, -1.14, -1.07, -1.71, -1.71, -1.71, -1.71, -2.23, -2.23, -2.89, -2.89, -2.89, -2.89, -2.89, -2.86, -2.86, -2.83, -3.32, -3.97, -3.49, 0.0, 4.08, 5.64, 6.31, 5.89, 5.64, 5.4, 5.17, 5.17, 5.17, 5.2, 5.2, 5.2, 4.54, 4.72, 4.54, 4.54, 5.02, 5.26, 5.69, 5.69, 5.95, 5.7, 5.72, 5.32, 5.06, 4.63, 4.16, 4.16, 3.97, 5.08, 5.72, 6.35, 6.67, 6.97, 8.93, 9.08, 9.3, 9.05, 9.67, 8.93, 7.9, 8.06, 9.2, 9.05, 9.08, 7.48, 6.7, 5.76, 5.72, 4.98, 4.04, 3.2, 4.1, 6.42, 8.42, 8.14, 6.65, 4.2, 4.34, 5.21, 6.7, 9.3, 11.69, 10.81, 10.48, 10.07, 10.05, 9.25, 8.18, 8.18, 8.53, 9.92, 8.01, 7.44, 6.67, 6.67, 6.67, -1.69, -1.69, -1.71, -1.71, -1.71, -1.71, -2.23, -2.23, -2.89, -2.89, -2.89, -2.89, -2.89, -2.89, -2.86, -2.86, -2.83, -3.32, -3.49, -1.16, 2.35, 5.0, 5.89, 5.89, 5.64, 5.2, 5.17, 5.17, 5.17, 5.2, 5.2, 5.2, 4.54, 4.54, 4.54, 5.0, 5.23, 5.67, 5.92, 5.92, 5.92, 5.69, 5.7, 6.84, 6.84, 5.72, 4.63, 4.42, 5.08, 5.08, 6.08, 6.69, 6.69, 6.97, 7.27, 7.55, 10.23, 9.88, 9.67, 9.0, 8.93, 8.6, 9.65, 10.04, 9.0, 8.22, 8.12, 6.57, 4.92, 4.13, 4.81, 4.91, 4.85, 2.5, 1.64, 3.26, 7.11, 8.12, 6.52, 4.44, 6.04, 6.79, 8.72, 8.73, 8.79, 8.01, 7.11, 7.59, 7.23, 7.36, 7.13, 7.59, 7.38, 8.16, 7.34, 5.89, 5.89, 5.89, -1.69, -1.69, -1.71, -1.71, -1.71, -2.23, -2.23, -2.89, -2.89, -2.89, -2.89, -2.89, -2.89, -2.89, -2.86, -2.33, -2.3, -2.83, -1.73, 0.58, 3.89, 5.2, 5.23, 5.0, 5.2, 4.72, 4.72, 5.2, 5.2, 5.2, 5.2, 4.54, 4.76, 5.23, 5.23, 5.67, 5.89, 5.67, 5.67, 5.92, 5.92, 5.69, 5.7, 5.72, 5.72, 6.45, 5.86, 5.32, 6.35, 6.08, 6.08, 5.98, 6.35, 6.64, 6.97, 7.59, 7.86, 8.73, 10.01, 9.34, 8.6, 9.27, 9.3, 9.3, 8.6, 9.0, 9.62, 9.48, 5.9, 4.0, 4.92, 7.13, 8.2, 5.69, 0.82, 0.0, 3.28, 6.66, 7.32, 6.79, 6.7, 6.28, 7.23, 6.98, 5.45, 5.02, 3.73, 3.73, 4.39, 5.02, 5.29, 5.67, 5.9, 7.32, 6.48, 5.8, 5.29, 5.29, -1.81, -1.81, -1.71, -1.71, -2.23, -2.23, -2.89, -2.89, -2.89, -2.89, -2.73, -2.73, -2.89, -2.37, -2.21, -1.78, -1.75, -1.16, 0.0, 2.87, 4.54, 4.76, 4.76, 4.54, 4.54, 4.72, 4.72, 5.2, 4.54, 4.54, 4.76, 5.02, 5.23, 5.23, 5.67, 5.89, 5.89, 5.89, 5.67, 5.67, 5.92, 5.69, 5.7, 5.72, 5.32, 5.63, 5.86, 5.7, 5.69, 5.69, 5.29, 5.32, 5.34, 6.06, 6.67, 7.59, 8.19, 8.78, 8.73, 10.01, 9.0, 9.27, 9.27, 8.6, 9.0, 8.38, 8.65, 8.85, 8.22, 6.3, 5.59, 7.08, 8.86, 9.18, 4.08, 0.0, 0.85, 4.75, 6.4, 7.59, 7.28, 7.09, 5.08, 4.4, 2.9, 1.71, 0.56, 0.74, 2.25, 2.95, 3.76, 3.6, 4.46, 5.02, 5.81, 5.71, 5.8, 5.8, -1.71, -1.71, -2.23, -2.23, -2.23, -2.89, -2.89, -2.89, -2.89, -2.73, -2.73, -2.89, -2.89, -2.23, -1.69, -1.78, -1.11, 0.0, 1.69, 4.05, 4.76, 4.76, 4.76, 4.54, 4.54, 4.54, 4.72, 5.0, 5.8, 4.6, 5.26, 5.26, 5.67, 5.67, 5.67, 5.67, 5.67, 5.67, 5.67, 5.67, 5.92, 5.69, 5.69, 5.7, 5.06, 5.06, 5.04, 5.26, 4.57, 4.6, 4.63, 5.08, 5.34, 5.72, 6.95, 7.88, 8.38, 8.73, 8.73, 8.73, 9.62, 8.93, 8.65, 8.93, 9.0, 8.73, 7.68, 8.22, 8.24, 7.24, 6.42, 5.9, 5.55, 7.94, 7.35, 2.43, 2.7, 5.0, 6.52, 6.69, 6.79, 5.29, 4.48, 2.28, 1.1, 0.0, 0.0, 0.0, 1.84, 2.21, 2.95, 3.68, 4.55, 5.02, 5.81, 5.9, 6.0, 6.0, -2.23, -2.23, -2.23, -2.23, -2.73, -2.89, -2.89, -2.89, -2.73, -2.92, -2.92, -2.73, -2.73, -2.23, -1.14, -0.56, 0.0, 2.35, 3.39, 4.08, 4.57, 4.76, 4.76, 4.54, 4.54, 4.54, 4.54, 4.76, 4.76, 5.8, 5.26, 5.02, 5.23, 5.23, 5.23, 5.23, 5.23, 5.23, 5.23, 5.69, 5.69, 5.69, 5.69, 5.7, 5.29, 5.06, 4.6, 4.12, 4.12, 3.94, 4.63, 5.08, 5.72, 6.35, 7.55, 8.08, 8.65, 8.73, 8.73, 8.78, 8.78, 9.04, 10.41, 9.04, 9.0, 8.31, 7.68, 6.53, 6.97, 7.19, 7.12, 5.63, 3.19, 3.2, 6.89, 6.46, 5.06, 5.2, 5.11, 5.18, 4.46, 3.6, 2.28, 1.48, 0.55, 0.53, 1.11, 1.11, 3.32, 4.13, 4.17, 4.32, 5.2, 5.63, 5.72, 5.91, 5.9, 5.9, -2.23, -2.23, -2.23, -2.73, -2.73, -2.89, -2.89, -2.73, -2.92, -2.92, -2.92, -2.4, -2.23, -1.71, -0.56, 0.0, 1.71, 2.9, 3.42, 4.08, 4.57, 4.57, 4.76, 4.54, 4.54, 4.54, 4.76, 4.76, 4.76, 4.57, 5.23, 5.23, 5.23, 5.23, 5.23, 5.02, 5.02, 5.02, 5.26, 5.26, 5.69, 5.69, 5.69, 5.29, 5.29, 4.6, 3.94, 4.12, 3.94, 4.63, 5.32, 5.72, 6.35, 6.97, 7.55, 8.08, 8.08, 8.44, 8.73, 8.78, 10.23, 10.04, 9.66, 9.66, 8.38, 8.31, 7.97, 7.18, 6.71, 6.94, 7.9, 6.9, 3.41, 2.39, 5.03, 8.25, 6.66, 4.06, 3.04, 2.97, 3.04, 2.88, 2.15, 2.21, 3.15, 2.6, 3.48, 3.49, 5.41, 5.72, 5.6, 5.11, 5.2, 5.02, 5.1, 5.72, 5.81, 5.81, -2.23, -2.23, -2.73, -2.73, -2.73, -2.73, -2.73, -2.92, -2.92, -2.4, -2.26, -1.71, -1.71, -1.14, 0.0, 1.73, 2.77, 3.42, 3.91, 3.91, 4.57, 4.57, 4.57, 4.76, 4.76, 4.76, 4.76, 4.57, 4.57, 4.57, 4.57, 4.57, 4.57, 4.57, 4.57, 5.02, 5.02, 5.26, 5.26, 5.26, 5.26, 5.04, 5.04, 5.04, 4.6, 4.4, 3.94, 4.63, 4.63, 5.06, 5.72, 6.35, 6.97, 7.27, 7.81, 8.08, 8.08, 8.08, 8.15, 8.19, 8.65, 10.79, 9.66, 9.66, 9.66, 8.82, 7.59, 7.48, 6.31, 6.97, 7.73, 8.2, 5.67, 4.12, 4.96, 7.45, 7.46, 4.87, 3.32, 2.61, 3.02, 2.89, 3.21, 4.6, 6.24, 4.74, 5.37, 7.24, 7.12, 6.43, 5.67, 4.71, 4.13, 3.59, 3.64, 3.64, 4.44, 4.44, -2.89, -2.89, -2.73, -2.73, -2.73, -2.92, -2.92, -2.75, -2.26, -2.26, -1.73, -1.71, -1.14, 0.0, 0.56, 1.65, 3.45, 3.94, 4.12, 3.91, 4.57, 4.57, 4.57, 4.57, 4.76, 4.76, 4.57, 4.57, 4.57, 4.57, 4.8, 4.57, 4.57, 4.57, 4.57, 4.57, 4.8, 4.6, 5.04, 5.04, 5.04, 5.29, 5.29, 4.6, 4.63, 4.63, 4.63, 4.42, 5.08, 5.72, 6.35, 6.69, 6.98, 7.59, 7.81, 8.08, 8.08, 8.08, 7.81, 8.15, 8.65, 8.55, 10.41, 9.04, 9.4, 8.22, 7.59, 7.18, 7.48, 7.48, 7.96, 7.9, 6.93, 6.42, 5.69, 5.61, 7.4, 7.32, 4.98, 3.85, 3.88, 4.5, 4.83, 6.14, 7.9, 8.16, 8.76, 7.9, 7.25, 5.38, 4.61, 3.91, 3.17, 2.41, 2.2, 2.2, 3.64, 3.64, -2.73, -2.73, -2.73, -2.92, -2.92, -2.92, -2.26, -2.26, -2.26, -1.73, -1.71, -1.71, 0.0, 0.0, 1.12, 2.17, 3.45, 3.94, 4.12, 3.91, 4.08, 4.57, 4.57, 4.57, 4.57, 4.57, 4.57, 4.57, 4.57, 4.8, 4.6, 4.6, 4.57, 4.57, 4.57, 4.8, 4.6, 4.6, 4.6, 5.04, 5.29, 5.29, 5.06, 5.86, 4.66, 4.63, 4.63, 5.08, 5.08, 6.0, 6.35, 6.69, 7.28, 7.59, 7.81, 8.08, 8.08, 7.73, 8.15, 8.15, 8.93, 9.2, 10.55, 9.04, 9.0, 8.22, 7.27, 7.59, 7.18, 7.18, 7.36, 7.63, 7.88, 9.4, 7.33, 5.56, 5.73, 5.79, 5.73, 5.3, 4.5, 5.38, 6.51, 7.52, 8.53, 8.79, 8.01, 7.25, 6.2, 4.61, 3.1, 2.35, 1.53, 1.66, 1.61, 1.46, 0.74, 2.2, -2.73, -2.73, -2.73, -2.92, -2.92, -2.26, -2.29, -2.12, -2.26, -1.71, -1.71, -0.58, 0.0, 0.56, 1.75, 2.3, 3.49, 3.94, 4.12, 3.91, 4.57, 4.57, 4.57, 4.57, 4.57, 4.57, 4.57, 4.57, 4.8, 4.6, 4.6, 4.6, 4.6, 4.38, 4.38, 4.6, 4.6, 4.6, 4.6, 4.63, 5.06, 4.63, 5.32, 5.86, 5.06, 5.06, 5.08, 5.08, 5.72, 6.0, 6.35, 6.69, 6.97, 7.55, 7.55, 8.08, 7.51, 7.51, 7.81, 8.15, 8.55, 8.68, 10.55, 8.79, 8.38, 8.49, 8.49, 7.97, 7.9, 7.48, 7.48, 8.24, 6.85, 7.88, 9.87, 7.22, 3.25, 2.45, 3.6, 5.3, 6.05, 6.79, 7.44, 8.16, 8.79, 8.29, 7.11, 6.2, 4.76, 3.1, 2.35, 1.53, 1.57, 0.81, 0.83, 0.73, 0.74, 0.74, -2.73, -2.73, -2.73, -2.92, -2.26, -2.29, -2.29, -2.26, -1.73, -1.71, -0.55, 0.0, 0.57, 1.12, 1.75, 2.83, 3.32, 3.49, 3.94, 4.12, 4.38, 4.57, 4.57, 4.57, 4.57, 4.57, 4.57, 4.57, 4.6, 4.6, 4.6, 4.6, 4.6, 4.6, 4.6, 4.6, 4.6, 4.4, 4.63, 4.63, 4.63, 4.63, 4.66, 4.66, 5.86, 5.06, 5.32, 5.34, 5.72, 6.0, 6.35, 6.35, 6.67, 6.95, 7.23, 7.51, 7.51, 7.51, 8.08, 8.08, 8.55, 8.68, 7.23, 9.09, 8.49, 8.49, 8.03, 7.59, 8.31, 7.48, 7.48, 6.57, 5.6, 6.8, 11.61, 11.62, 6.72, 2.51, 3.36, 5.41, 6.62, 7.36, 7.36, 7.63, 7.28, 6.67, 5.71, 4.76, 3.1, 2.35, 1.53, 0.79, 0.76, 0.0, 0.0, 0.0, 0.78, 0.74, -2.73, -2.73, -2.92, -2.26, -2.26, -2.29, -2.29, -1.73, -1.73, -0.55, 0.0, 0.0, 0.57, 1.67, 2.3, 2.83, 3.32, 3.49, 3.94, 4.12, 4.6, 4.38, 4.57, 4.57, 4.57, 4.57, 4.57, 4.6, 4.6, 4.6, 4.6, 4.6, 4.6, 4.12, 4.12, 4.12, 3.94, 3.94, 4.63, 4.63, 4.42, 4.42, 4.66, 4.44, 4.66, 5.86, 5.32, 5.72, 5.46, 5.72, 5.72, 6.06, 6.65, 6.95, 6.95, 7.51, 7.51, 7.51, 7.51, 8.0, 8.55, 8.68, 10.55, 9.1, 9.1, 9.48, 7.68, 8.49, 7.59, 7.48, 7.36, 6.57, 5.64, 5.8, 8.93, 12.63, 12.56, 7.4, 5.0, 6.57, 7.54, 7.44, 6.77, 6.53, 5.68, 5.02, 3.78, 3.1, 1.58, 1.53, 0.79, 0.0, 0.0, 0.0, 0.0, 0.85, 1.84, 1.84, -2.23, -2.23, -2.4, -2.26, -2.29, -2.29, -1.76, -1.63, -1.1, 0.0, 0.0, 0.54, 1.14, 1.67, 2.19, 2.83, 3.32, 3.49, 3.97, 3.94, 4.6, 4.6, 4.38, 4.57, 4.57, 4.57, 4.6, 4.6, 4.6, 4.6, 4.6, 4.12, 4.12, 4.12, 4.12, 3.94, 3.94, 4.16, 3.97, 3.97, 3.97, 4.2, 4.44, 4.0, 4.0, 4.2, 4.63, 5.32, 5.08, 5.34, 5.72, 6.34, 6.34, 6.64, 6.64, 6.92, 7.17, 7.51, 7.51, 7.8, 8.27, 8.43, 7.76, 10.0, 9.6, 9.09, 8.49, 7.59, 7.27, 7.48, 6.57, 6.31, 5.64, 6.45, 7.13, 8.87, 13.49, 13.74, 8.86, 7.38, 7.44, 7.58, 6.57, 5.89, 4.48, 3.34, 2.39, 1.62, 0.77, 0.79, 0.0, 0.0, 0.0, 0.89, 1.96, 1.96, 1.96, 1.96, -2.73, -2.73, -2.4, -2.26, -2.29, -2.29, -1.76, -1.1, -0.56, 0.0, 0.0, 0.57, 1.14, 1.78, 2.33, 2.86, 3.52, 3.49, 3.97, 3.94, 4.12, 4.6, 4.6, 4.6, 4.6, 4.6, 4.6, 4.6, 4.6, 4.12, 4.12, 4.12, 4.12, 3.94, 3.94, 3.94, 3.94, 3.97, 3.97, 3.97, 4.2, 4.0, 4.0, 4.0, 4.0, 4.0, 4.66, 4.66, 5.08, 5.34, 5.72, 6.01, 6.34, 6.34, 6.64, 6.92, 7.21, 6.92, 7.44, 7.44, 7.72, 7.9, 8.15, 10.4, 9.6, 8.73, 8.49, 8.49, 7.13, 6.98, 6.31, 5.9, 5.76, 6.33, 6.31, 7.11, 9.63, 13.59, 12.45, 9.54, 8.31, 7.34, 6.79, 5.8, 4.39, 2.93, 1.61, 0.76, 0.0, 0.0, 0.0, 0.0, 0.84, 1.84, 1.96, 1.96, 1.96, 1.96, -2.73, -2.73, -2.26, -2.26, -2.29, -1.76, -1.76, -1.1, -0.56, 0.0, 0.0, 1.14, 1.69, 2.33, 2.86, 3.35, 3.52, 3.97, 3.97, 3.94, 3.94, 4.12, 4.6, 4.6, 4.6, 4.6, 4.6, 4.6, 3.94, 3.94, 3.94, 3.94, 3.94, 3.94, 3.45, 3.45, 3.49, 3.97, 3.97, 3.97, 4.0, 4.0, 4.0, 4.0, 3.8, 4.0, 4.0, 4.44, 5.09, 5.09, 5.72, 5.72, 6.01, 6.34, 6.64, 6.87, 6.87, 7.21, 7.21, 7.44, 7.35, 7.35, 7.76, 8.0, 9.86, 8.73, 7.9, 7.27, 7.18, 6.7, 7.27, 6.42, 6.57, 6.33, 6.31, 7.23, 7.91, 10.06, 12.45, 12.07, 9.8, 7.25, 5.8, 5.29, 4.24, 2.93, 1.5, 0.78, 0.0, 0.0, 0.0, 1.84, 1.98, 1.84, 1.01, 0.89, 0.89, 0.89, -2.92, -2.92, -2.26, -2.26, -2.29, -1.65, -1.12, -1.1, 0.0, 0.0, 0.58, 1.14, 1.69, 2.21, 2.86, 3.35, 3.52, 4.2, 3.97, 3.97, 3.94, 3.94, 3.94, 4.12, 4.12, 4.12, 4.12, 3.94, 3.94, 3.94, 3.94, 3.94, 3.45, 3.45, 3.45, 3.49, 3.49, 3.49, 3.49, 4.0, 3.52, 3.52, 3.52, 3.35, 4.03, 4.03, 4.03, 4.69, 4.69, 5.09, 5.72, 5.72, 5.72, 6.34, 6.32, 6.87, 6.87, 6.87, 6.87, 6.87, 7.35, 7.61, 7.61, 7.76, 7.61, 8.15, 7.59, 6.95, 6.83, 7.13, 6.42, 6.7, 6.57, 6.33, 6.43, 6.52, 7.32, 8.83, 10.59, 12.34, 11.28, 8.86, 6.0, 5.0, 4.58, 2.99, 2.19, 1.48, 0.85, 1.47, 3.22, 1.99, 1.03, 0.95, 0.0, 0.0, 0.0, 0.0, -2.92, -2.92, -2.26, -2.29, -2.14, -1.65, -1.12, -0.56, 0.0, 0.0, 1.16, 1.69, 2.37, 2.71, 2.86, 3.35, 4.0, 4.0, 3.97, 3.97, 4.16, 3.94, 3.94, 3.94, 4.12, 4.12, 3.94, 3.94, 3.94, 3.94, 3.94, 3.45, 3.45, 3.45, 3.3, 3.49, 3.49, 3.32, 3.32, 3.32, 3.52, 3.52, 3.35, 3.35, 4.03, 4.03, 4.03, 4.45, 4.45, 5.1, 5.36, 5.36, 5.72, 6.04, 6.32, 6.62, 6.87, 6.87, 6.87, 6.87, 7.15, 7.07, 7.23, 7.61, 7.61, 8.73, 7.9, 7.9, 7.59, 7.27, 6.7, 6.98, 6.45, 6.33, 6.43, 7.25, 7.82, 8.86, 10.6, 11.67, 11.41, 9.89, 6.73, 4.6, 3.78, 3.02, 2.15, 2.21, 2.57, 2.2, 1.19, 1.05, 0.0, 0.0, 0.0, 0.0, 0.0, 0.0, -2.75, -2.75, -2.96, -2.29, -2.14, -1.65, -1.2, -0.56, 0.0, 0.58, 1.16, 2.37, 2.37, 2.71, 3.35, 3.35, 4.0, 4.0, 3.97, 3.97, 3.97, 4.16, 3.94, 3.94, 3.94, 3.94, 3.94, 3.94, 4.16, 4.16, 3.45, 3.45, 3.45, 3.3, 3.49, 3.49, 3.32, 3.32, 3.32, 2.83, 3.01, 2.86, 3.35, 3.56, 3.56, 4.03, 4.03, 4.03, 4.71, 4.71, 5.1, 5.36, 5.72, 5.72, 6.32, 6.62, 6.28, 6.52, 6.87, 7.15, 6.79, 7.07, 7.07, 7.48, 7.23, 9.09, 8.73, 8.73, 7.59, 6.83, 6.7, 6.98, 6.84, 6.7, 7.12, 7.9, 7.93, 8.86, 10.47, 11.4, 11.54, 10.82, 8.86, 5.3, 3.15, 2.44, 3.06, 3.06, 2.6, 2.0, 0.0, 0.0, 0.0, 0.96, 0.89, 0.89, 0.89, 0.89, -2.75, -2.75, -2.77, -2.29, -2.14, -1.65, -1.2, 0.0, 0.0, 1.16, 1.71, 2.37, 2.71, 2.86, 3.35, 3.8, 4.0, 4.0, 3.78, 3.97, 3.97, 3.97, 4.16, 3.94, 3.94, 3.94, 4.16, 4.16, 3.49, 3.49, 3.49, 3.3, 3.3, 3.49, 3.49, 3.32, 3.32, 2.83, 2.83, 2.83, 2.86, 3.35, 3.56, 3.56, 3.56, 4.03, 4.03, 4.28, 4.46, 4.46, 5.1, 5.1, 5.44, 6.01, 6.28, 6.28, 6.28, 6.28, 6.57, 6.79, 6.79, 7.07, 6.7, 6.95, 6.95, 7.76, 8.42, 7.68, 7.68, 7.13, 7.13, 7.13, 6.98, 7.36, 7.73, 7.9, 8.56, 8.72, 10.19, 10.99, 10.72, 10.59, 10.85, 8.31, 3.91, 3.33, 3.8, 3.91, 3.33, 1.83, 0.0, 0.0, 0.0, 0.96, 0.89, 0.95, 0.95, 0.95, -2.96, -2.77, -2.77, -2.14, -1.65, -1.12, -0.56, 0.0, 0.55, 1.16, 1.81, 2.21, 2.86, 3.35, 3.56, 4.03, 3.8, 4.0, 3.52, 3.49, 3.49, 3.49, 3.49, 3.49, 3.49, 3.49, 3.49, 3.49, 3.49, 3.49, 3.49, 3.49, 3.49, 3.49, 3.32, 2.83, 2.83, 2.83, 2.83, 3.01, 2.86, 3.35, 3.56, 3.56, 3.56, 4.03, 4.03, 4.05, 4.46, 4.73, 4.73, 5.1, 5.1, 5.71, 6.28, 6.28, 6.28, 6.28, 6.57, 6.57, 6.57, 6.7, 6.7, 6.95, 6.56, 7.81, 7.76, 8.38, 8.38, 7.59, 7.59, 7.13, 6.83, 7.48, 7.36, 8.01, 8.66, 8.84, 8.86, 9.67, 10.03, 10.48, 10.72, 8.86, 5.14, 4.03, 3.8, 3.27, 2.64, 1.84, 0.81, 0.96, 0.81, 1.03, 0.95, 0.95, 0.95, 0.95, -2.77, -2.77, -2.32, -2.14, -1.65, -1.2, 0.0, 0.0, 1.09, 1.71, 2.37, 2.71, 2.86, 3.35, 3.56, 4.03, 3.35, 3.52, 3.52, 3.32, 3.32, 3.49, 3.49, 3.49, 3.49, 3.49, 3.49, 3.49, 3.49, 3.49, 3.49, 3.49, 2.97, 2.97, 2.83, 2.83, 2.83, 2.83, 2.83, 2.86, 2.86, 3.35, 3.56, 3.56, 3.56, 3.56, 4.03, 4.05, 4.05, 4.73, 4.73, 4.73, 5.38, 6.01, 6.01, 6.28, 6.28, 6.28, 6.23, 6.23, 6.23, 6.51, 6.51, 6.15, 6.41, 5.86, 7.15, 7.76, 8.03, 7.97, 7.9, 7.48, 7.13, 6.95, 7.18, 7.64, 7.9, 8.05, 8.06, 8.16, 9.09, 9.79, 9.66, 8.0, 4.83, 4.03, 3.15, 2.4, 1.6, 1.7, 1.7, 1.7, 0.96, 0.89, 0.95, 1.01, 1.01, 1.01, -2.8, -2.8, -2.32, -1.65, -1.12, -0.56, 0.0, 0.59, 1.09, 2.23, 2.89, 2.86, 3.35, 3.35, 3.56, 3.56, 3.35, 3.35, 3.52, 3.52, 3.32, 3.32, 3.49, 3.49, 3.49, 3.49, 3.49, 3.49, 3.49, 3.49, 2.97, 2.97, 2.83, 2.83, 2.83, 2.83, 2.83, 2.83, 2.86, 2.86, 2.86, 3.35, 3.37, 3.37, 3.56, 3.56, 3.37, 4.05, 4.08, 4.47, 4.73, 4.73, 5.1, 5.69, 5.69, 5.69, 5.95, 6.23, 6.23, 6.23, 6.23, 6.51, 6.15, 5.93, 5.59, 5.29, 6.79, 7.15, 7.76, 7.27, 7.59, 7.18, 7.18, 6.83, 6.83, 7.36, 7.38, 7.49, 7.59, 7.45, 8.74, 9.92, 9.54, 5.55, 3.91, 3.2, 2.31, 1.65, 0.82, 0.88, 1.6, 1.72, 0.95, 1.01, 0.89, 0.94, 0.94, 0.94, -2.32, -2.32, -1.8, -1.12, -0.57, 0.0, 0.0, 1.09, 1.71, 2.37, 2.71, 2.86, 3.35, 3.56, 3.56, 3.56, 3.35, 3.35, 3.35, 3.52, 3.52, 3.32, 3.32, 3.32, 3.32, 3.32, 3.32, 3.32, 3.32, 2.83, 2.83, 2.83, 2.83, 2.83, 2.83, 2.83, 2.83, 2.83, 2.86, 2.86, 2.86, 2.86, 2.89, 2.89, 2.89, 2.89, 3.37, 3.4, 4.08, 4.08, 4.47, 4.73, 5.38, 5.69, 5.69, 5.69, 5.98, 5.98, 6.23, 6.23, 5.88, 5.93, 5.93, 5.93, 5.35, 4.43, 4.07, 4.07, 6.32, 6.48, 6.53, 6.83, 6.42, 6.83, 6.83, 6.57, 6.94, 7.49, 7.93, 8.18, 8.99, 8.99, 9.72, 6.35, 3.27, 2.47, 2.26, 2.4, 2.51, 2.35, 2.26, 2.26, 1.84, 1.84, 1.75, 1.75, 1.75, 1.75, -1.8, -1.8, -1.65, -1.12, -0.56, 0.0, 0.59, 1.09, 1.71, 2.37, 2.71, 2.86, 3.35, 3.56, 3.56, 3.56, 3.35, 3.35, 3.35, 3.35, 2.86, 3.01, 3.01, 2.83, 2.83, 2.83, 2.83, 2.83, 2.83, 2.83, 2.83, 2.83, 2.83, 2.83, 2.83, 2.83, 2.83, 2.83, 2.86, 2.86, 2.86, 2.86, 2.71, 2.89, 2.89, 2.89, 2.89, 3.4, 4.08, 4.08, 4.47, 4.47, 5.38, 5.08, 5.37, 5.65, 5.98, 5.98, 5.98, 5.65, 5.65, 5.65, 5.65, 5.06, 4.75, 4.74, 4.11, 3.73, 5.69, 5.89, 5.76, 5.76, 6.04, 6.83, 6.7, 6.15, 6.84, 7.38, 8.31, 8.84, 9.11, 9.25, 11.0, 9.13, 4.44, 2.8, 3.55, 4.34, 3.8, 4.0, 3.06, 3.06, 2.7, 2.57, 2.57, 2.57, 2.57, 2.57, -1.65, -1.65, -1.12, -0.57, 0.0, 0.0, 0.55, 1.71, 2.23, 2.37, 2.86, 2.86, 3.35, 3.56, 3.56, 3.56, 3.35, 2.86, 2.86, 2.86, 2.86, 2.86, 2.86, 3.01, 3.01, 2.83, 2.83, 2.83, 2.83, 2.83, 2.83, 2.83, 2.83, 2.83, 2.83, 2.83, 2.83, 2.83, 2.33, 2.33, 2.33, 2.21, 2.21, 2.37, 2.89, 2.73, 2.92, 3.4, 3.64, 4.08, 4.47, 4.75, 5.08, 5.08, 5.37, 5.37, 5.65, 5.65, 5.65, 5.65, 5.65, 5.06, 5.06, 4.75, 4.45, 4.45, 4.12, 4.11, 3.83, 5.36, 5.21, 6.18, 6.18, 6.83, 6.7, 6.15, 5.9, 6.7, 7.38, 8.45, 8.95, 9.23, 9.85, 10.86, 6.66, 3.6, 4.16, 4.6, 3.78, 3.78, 3.78, 3.69, 3.11, 2.59, 2.59, 3.36, 3.36, 3.36, -1.12, -1.12, -0.57, 0.0, 0.0, 0.59, 1.09, 1.71, 2.37, 2.71, 2.86, 3.35, 3.56, 3.56, 3.56, 3.56, 2.86, 2.86, 2.86, 2.86, 2.86, 2.86, 2.86, 2.86, 3.01, 3.01, 2.83, 2.83, 2.83, 2.83, 2.83, 2.83, 2.83, 2.83, 2.3, 2.3, 2.19, 2.33, 2.33, 2.33, 2.21, 2.21, 2.37, 2.23, 2.23, 2.92, 2.92, 3.4, 3.64, 4.08, 4.47, 4.75, 4.75, 4.75, 5.06, 5.06, 5.06, 5.06, 5.06, 5.06, 5.06, 5.06, 4.75, 4.45, 4.12, 4.12, 4.12, 4.11, 3.83, 5.24, 6.32, 6.18, 6.95, 6.83, 6.7, 6.7, 6.31, 6.15, 6.84, 7.51, 8.05, 7.67, 8.2, 9.0, 8.26, 5.0, 4.03, 4.28, 3.95, 3.11, 2.97, 3.78, 3.69, 3.51, 3.36, 4.25, 4.25, 4.25, -1.12, -1.12, -0.57, 0.0, 0.0, 0.55, 1.16, 1.71, 2.37, 2.71, 2.86, 3.35, 3.35, 3.35, 3.35, 2.86, 2.86, 2.86, 2.86, 2.33, 2.86, 2.86, 2.86, 2.86, 2.86, 2.86, 3.01, 2.83, 2.83, 2.83, 2.83, 2.83, 2.83, 2.3, 2.19, 2.19, 2.33, 2.33, 1.69, 1.69, 1.69, 1.81, 2.23, 2.23, 2.4, 2.92, 2.92, 3.4, 3.64, 4.08, 4.08, 4.47, 4.47, 4.47, 4.75, 4.75, 5.06, 5.35, 5.35, 5.06, 4.75, 4.75, 4.75, 4.12, 4.12, 3.84, 4.12, 3.49, 3.49, 5.37, 6.11, 6.32, 6.18, 6.48, 6.83, 6.7, 5.9, 5.29, 6.15, 6.56, 6.65, 6.6, 5.76, 6.5, 7.17, 5.67, 5.21, 3.7, 3.95, 3.78, 3.61, 3.78, 3.95, 4.44, 4.25, 4.44, 4.44, 4.44, -0.57, -0.57, 0.0, 0.0, 0.59, 1.09, 1.71, 2.37, 2.71, 2.86, 3.35, 3.35, 3.35, 3.35, 2.86, 2.86, 2.33, 2.21, 2.21, 2.21, 2.21, 2.21, 2.86, 2.86, 2.86, 2.86, 2.86, 3.01, 2.83, 2.83, 2.83, 2.83, 2.19, 2.19, 2.33, 2.33, 1.69, 1.69, 1.69, 1.81, 1.71, 1.71, 2.23, 2.4, 2.26, 2.92, 2.92, 3.4, 3.64, 4.08, 3.84, 4.1, 4.1, 3.85, 4.12, 4.45, 4.74, 4.74, 4.74, 4.45, 4.45, 4.45, 4.12, 4.12, 4.12, 3.84, 3.49, 3.49, 3.49, 3.79, 3.78, 4.68, 5.1, 5.36, 5.76, 5.29, 4.92, 4.92, 5.14, 5.72, 5.8, 5.62, 5.61, 5.73, 6.46, 6.6, 5.29, 4.5, 4.4, 4.6, 4.4, 4.4, 4.6, 5.0, 5.0, 4.3, 4.3, 4.3, -0.57, -0.57, 0.0, 0.0, 0.55, 1.16, 1.71, 2.37, 2.71, 2.86, 3.35, 3.35, 2.86, 2.86, 2.86, 2.33, 2.33, 2.21, 2.21, 2.21, 2.21, 2.21, 2.21, 2.71, 2.86, 2.86, 2.86, 2.86, 2.86, 2.86, 2.86, 2.33, 2.33, 2.33, 2.33, 1.69, 1.69, 1.69, 1.71, 1.71, 1.71, 1.71, 1.73, 2.26, 2.26, 2.75, 2.75, 3.64, 3.64, 3.42, 3.42, 3.68, 3.45, 3.85, 4.12, 3.84, 4.12, 4.12, 4.42, 4.45, 4.45, 4.12, 4.12, 4.12, 4.12, 3.47, 3.22, 3.49, 3.49, 2.86, 2.86, 3.77, 4.68, 5.21, 4.34, 4.4, 4.25, 5.14, 5.0, 4.17, 4.81, 4.91, 4.98, 5.69, 7.45, 7.2, 5.86, 5.06, 4.4, 5.18, 5.18, 5.18, 5.09, 5.0, 4.58, 3.91, 3.91, 3.91, 0.0, 0.0, 0.0, 0.59, 1.09, 1.71, 2.37, 2.71, 2.86, 2.86, 2.86, 2.86, 2.86, 2.86, 2.19, 2.33, 2.33, 2.33, 2.21, 2.21, 2.21, 2.21, 2.21, 2.71, 2.86, 2.86, 2.86, 2.86, 2.86, 2.86, 2.86, 2.33, 2.33, 2.33, 2.33, 1.69, 1.69, 1.81, 1.71, 1.71, 1.71, 1.73, 1.73, 2.26, 2.26, 2.75, 2.75, 3.2, 3.42, 3.42, 3.42, 3.42, 3.45, 3.22, 3.47, 3.47, 4.12, 4.12, 4.12, 4.12, 4.12, 4.12, 4.12, 4.12, 3.72, 3.47, 3.47, 3.08, 2.84, 2.86, 2.61, 2.84, 2.82, 2.58, 2.83, 3.65, 4.25, 5.35, 5.0, 5.06, 5.11, 4.91, 5.56, 6.37, 7.57, 8.12, 7.25, 6.0, 5.76, 6.0, 6.0, 6.0, 5.3, 5.2, 4.32, 3.32, 3.32, 3.32, 0.0, 0.0, 0.0, 0.59, 1.09, 1.71, 2.37, 2.71, 2.86, 2.86, 2.86, 2.86, 2.86, 2.86, 2.19, 2.33, 2.33, 2.33, 2.21, 2.21, 2.21, 2.21, 2.21, 2.71, 2.86, 2.86, 2.86, 2.86, 2.86, 2.86, 2.86, 2.33, 2.33, 2.33, 2.33, 1.69, 1.69, 1.81, 1.71, 1.71, 1.71, 1.73, 1.73, 2.26, 2.26, 2.75, 2.75, 3.2, 3.42, 3.42, 3.42, 3.42, 3.45, 3.22, 3.47, 3.47, 4.12, 4.12, 4.12, 4.12, 4.12, 4.12, 4.12, 4.12, 3.72, 3.47, 3.47, 3.08, 2.84, 2.86, 2.61, 2.84, 2.82, 2.58, 2.83, 3.65, 5.14, 5.35, 5.0, 5.06, 5.11, 5.02, 5.67, 6.59, 7.34, 8.12, 8.43, 7.51, 6.84, 6.84, 6.84, 6.24, 5.86, 5.06, 4.06, 3.32, 3.32, 3.32]}]